Observation data for Smyer on 05/26/2019      Previous  Date  Next       Current Mesonet Observations  Soil Data  Daily Summary Page  Observations in Plain Language
KSM2 260500Z 16009KT 21/18 A2997 RMK A01 T02100180  RH  083%=      5-min Rain = 0
KSM2 260501Z 16008KT 21/18 A2997 RMK A01 T02100180  RH  083%=      5-min Rain = 0
KSM2 260502Z 16009KT 21/18 A2997 RMK A01 T02110180  RH  083%=      5-min Rain = 0
KSM2 260503Z 16009KT 21/18 A2997 RMK A01 T02100179  RH  082%=      5-min Rain = 0
KSM2 260504Z 16008KT 21/18 A2997 RMK A01 T02110180  RH  082%=      5-min Rain = 0
KSM2 260505Z 17008KT 21/18 A2997 RMK A01 T02100180  RH  083%=      5-min Rain = 0
KSM2 260506Z 16008KT 21/18 A2997 RMK A01 T02100180  RH  083%=      5-min Rain = 0
KSM2 260507Z 16008KT 21/18 A2997 RMK A01 T02100180  RH  083%=      5-min Rain = 0
KSM2 260508Z 16007KT 21/18 A2997 RMK A01 T02100179  RH  083%=      5-min Rain = 0
KSM2 260509Z 16007KT 21/18 A2997 RMK A01 T02100179  RH  083%=      5-min Rain = 0
KSM2 260510Z 16007KT 21/18 A2997 RMK A01 T02090179  RH  083%=      5-min Rain = 0
KSM2 260511Z 16008KT 21/18 A2997 RMK A01 T02090179  RH  083%=      5-min Rain = 0
KSM2 260512Z 16007KT 21/18 A2997 RMK A01 T02080179  RH  083%=      5-min Rain = 0
KSM2 260513Z 16007KT 21/18 A2997 RMK A01 T02080179  RH  083%=      5-min Rain = 0
KSM2 260514Z 16008KT 21/18 A2997 RMK A01 T02080179  RH  083%=      5-min Rain = 0
KSM2 260515Z 16008KT 21/18 A2997 RMK A01 T02070178  RH  083%=      5-min Rain = 0
KSM2 260516Z 17007KT 21/18 A2997 RMK A01 T02080178  RH  083%=      5-min Rain = 0
KSM2 260517Z 16007KT 21/18 A2997 RMK A01 T02080178  RH  083%=      5-min Rain = 0
KSM2 260518Z 17007KT 21/18 A2997 RMK A01 T02070178  RH  083%=      5-min Rain = 0
KSM2 260519Z 16006KT 21/18 A2997 RMK A01 T02070178  RH  083%=      5-min Rain = 0
KSM2 260520Z 16007KT 21/18 A2997 RMK A01 T02070178  RH  084%=      5-min Rain = 0
KSM2 260521Z 16007KT 21/18 A2997 RMK A01 T02060178  RH  084%=      5-min Rain = 0
KSM2 260522Z 16006KT 21/18 A2997 RMK A01 T02060178  RH  084%=      5-min Rain = 0
KSM2 260523Z 17006KT 21/18 A2997 RMK A01 T02060178  RH  084%=      5-min Rain = 0
KSM2 260524Z 16006KT 21/18 A2997 RMK A01 T02060177  RH  084%=      5-min Rain = 0
KSM2 260525Z 17007KT 21/18 A2997 RMK A01 T02050177  RH  084%=      5-min Rain = 0
KSM2 260526Z 17008KT 21/18 A2997 RMK A01 T02060177  RH  084%=      5-min Rain = 0
KSM2 260527Z 17006KT 21/18 A2997 RMK A01 T02050177  RH  084%=      5-min Rain = 0
KSM2 260528Z 17006KT 21/18 A2997 RMK A01 T02050177  RH  084%=      5-min Rain = 0
KSM2 260529Z 18007KT 20/18 A2997 RMK A01 T02040177  RH  084%=      5-min Rain = 0
KSM2 260530Z 17007KT 20/18 A2997 RMK A01 T02040176  RH  084%=      5-min Rain = 0
KSM2 260531Z 17006KT 20/18 A2997 RMK A01 T02040176  RH  084%=      5-min Rain = 0
KSM2 260532Z 17006KT 20/18 A2997 RMK A01 T02040176  RH  084%=      5-min Rain = 0
KSM2 260533Z 17006KT 20/18 A2997 RMK A01 T02040176  RH  084%=      5-min Rain = 0
KSM2 260534Z 17006KT 20/18 A2997 RMK A01 T02040176  RH  084%=      5-min Rain = 0
KSM2 260535Z 17007KT 20/18 A2997 RMK A01 T02040176  RH  084%=      5-min Rain = 0
KSM2 260536Z 17007KT 20/18 A2997 RMK A01 T02040176  RH  084%=      5-min Rain = 0
KSM2 260537Z 17006KT 20/18 A2997 RMK A01 T02040175  RH  083%=      5-min Rain = 0
KSM2 260538Z 18006KT 20/18 A2997 RMK A01 T02040175  RH  084%=      5-min Rain = 0
KSM2 260539Z 18007KT 20/18 A2997 RMK A01 T02040175  RH  084%=      5-min Rain = 0
KSM2 260540Z 18006KT 20/18 A2997 RMK A01 T02040175  RH  084%=      5-min Rain = 0
KSM2 260541Z 18006KT 20/18 A2997 RMK A01 T02040175  RH  084%=      5-min Rain = 0
KSM2 260542Z 18006KT 20/18 A2997 RMK A01 T02030175  RH  084%=      5-min Rain = 0
KSM2 260543Z 18006KT 20/18 A2997 RMK A01 T02020175  RH  084%=      5-min Rain = 0
KSM2 260544Z 18005KT 20/18 A2997 RMK A01 T02020175  RH  084%=      5-min Rain = 0
KSM2 260545Z 18006KT 20/17 A2997 RMK A01 T02010174  RH  084%=      5-min Rain = 0
KSM2 260546Z 17006KT 20/18 A2997 RMK A01 T02010175  RH  084%=      5-min Rain = 0
KSM2 260547Z 17006KT 20/17 A2997 RMK A01 T02010174  RH  084%=      5-min Rain = 0
KSM2 260548Z 17006KT 20/17 A2997 RMK A01 T02010174  RH  084%=      5-min Rain = 0
KSM2 260549Z 18005KT 20/17 A2997 RMK A01 T02010174  RH  084%=      5-min Rain = 0
KSM2 260550Z 17006KT 20/17 A2997 RMK A01 T02010174  RH  085%=      5-min Rain = 0
KSM2 260551Z 17007KT 20/17 A2997 RMK A01 T02010174  RH  085%=      5-min Rain = 0
KSM2 260552Z 18006KT 20/17 A2997 RMK A01 T02000174  RH  085%=      5-min Rain = 0
KSM2 260553Z 17005KT 20/17 A2997 RMK A01 T02000174  RH  085%=      5-min Rain = 0
KSM2 260554Z 18006KT 20/17 A2997 RMK A01 T02000174  RH  085%=      5-min Rain = 0
KSM2 260555Z 17006KT 20/17 A2997 RMK A01 T01990174  RH  085%=      5-min Rain = 0
KSM2 260556Z 18006KT 20/17 A2997 RMK A01 T02000174  RH  085%=      5-min Rain = 0
KSM2 260557Z 18006KT 20/17 A2997 RMK A01 T01990174  RH  085%=      5-min Rain = 0
KSM2 260558Z 18006KT 20/17 A2997 RMK A01 T01990174  RH  085%=      5-min Rain = 0
KSM2 260559Z 17006KT 20/17 A2997 RMK A01 T01990174  RH  085%=      5-min Rain = 0
KSM2 260600Z 17007KT 20/17 A2997 RMK A01 T01990174  RH  085%=      5-min Rain = 0
KSM2 260601Z 17006KT 20/17 A2997 RMK A01 T01990174  RH  085%=      5-min Rain = 0
KSM2 260602Z 17006KT 20/17 A2997 RMK A01 T01990174  RH  085%=      5-min Rain = 0
KSM2 260603Z 17006KT 20/17 A2997 RMK A01 T01990173  RH  085%=      5-min Rain = 0
KSM2 260604Z 17006KT 20/17 A2997 RMK A01 T01990173  RH  085%=      5-min Rain = 0
KSM2 260605Z 17006KT 20/17 A2997 RMK A01 T01980174  RH  086%=      5-min Rain = 0
KSM2 260606Z 17006KT 20/17 A2997 RMK A01 T01980174  RH  086%=      5-min Rain = 0
KSM2 260607Z 17007KT 20/17 A2997 RMK A01 T01980174  RH  086%=      5-min Rain = 0
KSM2 260608Z 17006KT 20/17 A2997 RMK A01 T01980174  RH  086%=      5-min Rain = 0
KSM2 260609Z 17006KT 20/17 A2997 RMK A01 T01980174  RH  086%=      5-min Rain = 0
KSM2 260610Z 17006KT 20/17 A2997 RMK A01 T01980174  RH  086%=      5-min Rain = 0
KSM2 260611Z 16006KT 20/17 A2997 RMK A01 T01980174  RH  086%=      5-min Rain = 0
KSM2 260612Z 16007KT 20/17 A2997 RMK A01 T01980174  RH  086%=      5-min Rain = 0
KSM2 260613Z 17007KT 20/17 A2997 RMK A01 T01980174  RH  086%=      5-min Rain = 0
KSM2 260614Z 16007KT 20/17 A2997 RMK A01 T01990174  RH  086%=      5-min Rain = 0
KSM2 260615Z 16006KT 20/17 A2997 RMK A01 T01980173  RH  085%=      5-min Rain = 0
KSM2 260616Z 16006KT 20/17 A2997 RMK A01 T01990173  RH  085%=      5-min Rain = 0
KSM2 260617Z 16006KT 20/17 A2997 RMK A01 T01990174  RH  086%=      5-min Rain = 0
KSM2 260618Z 16006KT 20/17 A2997 RMK A01 T01980174  RH  086%=      5-min Rain = 0
KSM2 260619Z 16006KT 20/17 A2997 RMK A01 T01980174  RH  086%=      5-min Rain = 0
KSM2 260620Z 16006KT 20/17 A2997 RMK A01 T01980174  RH  086%=      5-min Rain = 0
KSM2 260621Z 16006KT 20/17 A2997 RMK A01 T01970174  RH  086%=      5-min Rain = 0
KSM2 260622Z 16006KT 20/17 A2997 RMK A01 T01970173  RH  086%=      5-min Rain = 0
KSM2 260623Z 16005KT 20/17 A2997 RMK A01 T01960173  RH  086%=      5-min Rain = 0
KSM2 260624Z 16006KT 20/17 A2997 RMK A01 T01960173  RH  087%=      5-min Rain = 0
KSM2 260625Z 16006KT 20/17 A2997 RMK A01 T01960173  RH  087%=      5-min Rain = 0
KSM2 260626Z 16005KT 20/17 A2997 RMK A01 T01960174  RH  087%=      5-min Rain = 0
KSM2 260627Z 16005KT 20/17 A2997 RMK A01 T01960174  RH  087%=      5-min Rain = 0
KSM2 260628Z 17005KT 20/17 A2997 RMK A01 T01960174  RH  087%=      5-min Rain = 0
KSM2 260629Z 16005KT 20/17 A2997 RMK A01 T01950174  RH  087%=      5-min Rain = 0
KSM2 260630Z 16006KT 20/17 A2997 RMK A01 T01950174  RH  087%=      5-min Rain = 0
KSM2 260631Z 17005KT 20/17 A2997 RMK A01 T01950174  RH  087%=      5-min Rain = 0
KSM2 260632Z 17005KT 20/17 A2997 RMK A01 T01950174  RH  087%=      5-min Rain = 0
KSM2 260633Z 17006KT 20/17 A2997 RMK A01 T01960174  RH  087%=      5-min Rain = 0
KSM2 260634Z 17005KT 20/17 A2997 RMK A01 T01950174  RH  087%=      5-min Rain = 0
KSM2 260635Z 17005KT 20/17 A2997 RMK A01 T01950174  RH  087%=      5-min Rain = 0
KSM2 260636Z 17005KT 20/17 A2997 RMK A01 T01950174  RH  087%=      5-min Rain = 0
KSM2 260637Z 17005KT 20/17 A2997 RMK A01 T01950174  RH  087%=      5-min Rain = 0
KSM2 260638Z 17006KT 20/17 A2997 RMK A01 T01950174  RH  087%=      5-min Rain = 0
KSM2 260639Z 18005KT 20/17 A2997 RMK A01 T01950174  RH  088%=      5-min Rain = 0
KSM2 260640Z 18005KT 20/17 A2997 RMK A01 T01950174  RH  088%=      5-min Rain = 0
KSM2 260641Z 18006KT 19/17 A2997 RMK A01 T01940174  RH  088%=      5-min Rain = 0
KSM2 260642Z 17005KT 19/17 A2997 RMK A01 T01940173  RH  088%=      5-min Rain = 0
KSM2 260643Z 17004KT 19/17 A2997 RMK A01 T01940173  RH  088%=      5-min Rain = 0
KSM2 260644Z 17005KT 19/17 A2997 RMK A01 T01930173  RH  088%=      5-min Rain = 0
KSM2 260645Z 18005KT 19/17 A2997 RMK A01 T01930174  RH  088%=      5-min Rain = 0
KSM2 260646Z 18005KT 19/17 A2997 RMK A01 T01930174  RH  088%=      5-min Rain = 0
KSM2 260647Z 18004KT 19/17 A2997 RMK A01 T01930174  RH  089%=      5-min Rain = 0
KSM2 260648Z 17005KT 19/17 A2997 RMK A01 T01920173  RH  089%=      5-min Rain = 0
KSM2 260649Z 18005KT 19/17 A2997 RMK A01 T01920173  RH  089%=      5-min Rain = 0
KSM2 260650Z 18005KT 19/17 A2997 RMK A01 T01920173  RH  089%=      5-min Rain = 0
KSM2 260651Z 18005KT 19/17 A2997 RMK A01 T01910173  RH  089%=      5-min Rain = 0
KSM2 260652Z 18005KT 19/17 A2997 RMK A01 T01910173  RH  089%=      5-min Rain = 0
KSM2 260653Z 18005KT 19/17 A2997 RMK A01 T01910173  RH  090%=      5-min Rain = 0
KSM2 260654Z 18006KT 19/17 A2997 RMK A01 T01900173  RH  090%=      5-min Rain = 0
KSM2 260655Z 18005KT 19/17 A2997 RMK A01 T01900173  RH  090%=      5-min Rain = 0
KSM2 260656Z 17005KT 19/17 A2997 RMK A01 T01890173  RH  090%=      5-min Rain = 0
KSM2 260657Z 17005KT 19/17 A2997 RMK A01 T01890173  RH  090%=      5-min Rain = 0
KSM2 260658Z 17005KT 19/17 A2997 RMK A01 T01880173  RH  091%=      5-min Rain = 0
KSM2 260659Z 18006KT 19/17 A2997 RMK A01 T01880173  RH  091%=      5-min Rain = 0
KSM2 260700Z 17005KT 19/17 A2997 RMK A01 T01880173  RH  091%=      5-min Rain = 0
KSM2 260701Z 18005KT 19/17 A2997 RMK A01 T01880173  RH  091%=      5-min Rain = 0
KSM2 260702Z 17005KT 19/17 A2997 RMK A01 T01880173  RH  091%=      5-min Rain = 0
KSM2 260703Z 18005KT 19/17 A2997 RMK A01 T01880173  RH  091%=      5-min Rain = 0
KSM2 260704Z 18004KT 19/17 A2997 RMK A01 T01880173  RH  091%=      5-min Rain = 0
KSM2 260705Z 18005KT 19/17 A2997 RMK A01 T01880173  RH  091%=      5-min Rain = 0
KSM2 260706Z 17004KT 19/17 A2997 RMK A01 T01880173  RH  091%=      5-min Rain = 0
KSM2 260707Z 18003KT 19/17 A2996 RMK A01 T01880173  RH  091%=      5-min Rain = 0
KSM2 260708Z 17004KT 19/17 A2996 RMK A01 T01880173  RH  091%=      5-min Rain = 0
KSM2 260709Z 16004KT 19/17 A2996 RMK A01 T01880173  RH  091%=      5-min Rain = 0
KSM2 260710Z 17005KT 19/17 A2996 RMK A01 T01880173  RH  091%=      5-min Rain = 0
KSM2 260711Z 17005KT 19/17 A2996 RMK A01 T01890173  RH  090%=      5-min Rain = 0
KSM2 260712Z 17004KT 19/17 A2996 RMK A01 T01890173  RH  090%=      5-min Rain = 0
KSM2 260713Z 17004KT 19/17 A2996 RMK A01 T01890173  RH  090%=      5-min Rain = 0
KSM2 260714Z 16004KT 19/17 A2996 RMK A01 T01890173  RH  090%=      5-min Rain = 0
KSM2 260715Z 16004KT 19/17 A2996 RMK A01 T01900173  RH  090%=      5-min Rain = 0
KSM2 260716Z 16004KT 19/17 A2996 RMK A01 T01900173  RH  090%=      5-min Rain = 0
KSM2 260717Z 16004KT 19/17 A2996 RMK A01 T01890172  RH  090%=      5-min Rain = 0
KSM2 260718Z 16004KT 19/17 A2996 RMK A01 T01890172  RH  090%=      5-min Rain = 0
KSM2 260719Z 16004KT 19/17 A2996 RMK A01 T01890172  RH  090%=      5-min Rain = 0
KSM2 260720Z 16005KT 19/17 A2996 RMK A01 T01890173  RH  090%=      5-min Rain = 0
KSM2 260721Z 16005KT 19/17 A2996 RMK A01 T01890173  RH  090%=      5-min Rain = 0
KSM2 260722Z 15005KT 19/17 A2996 RMK A01 T01890173  RH  090%=      5-min Rain = 0
KSM2 260723Z 16005KT 19/17 A2996 RMK A01 T01890173  RH  090%=      5-min Rain = 0
KSM2 260724Z 15005KT 19/17 A2996 RMK A01 T01890173  RH  090%=      5-min Rain = 0
KSM2 260725Z 15005KT 19/17 A2996 RMK A01 T01890173  RH  090%=      5-min Rain = 0
KSM2 260726Z 15005KT 19/17 A2996 RMK A01 T01890173  RH  090%=      5-min Rain = 0
KSM2 260727Z 15004KT 19/17 A2996 RMK A01 T01890173  RH  090%=      5-min Rain = 0
KSM2 260728Z 15004KT 19/17 A2996 RMK A01 T01890173  RH  090%=      5-min Rain = 0
KSM2 260729Z 15004KT 19/17 A2996 RMK A01 T01890173  RH  090%=      5-min Rain = 0
KSM2 260730Z 15004KT 19/17 A2996 RMK A01 T01880173  RH  091%=      5-min Rain = 0
KSM2 260731Z 16004KT 19/17 A2996 RMK A01 T01880172  RH  091%=      5-min Rain = 0
KSM2 260732Z 15003KT 19/17 A2996 RMK A01 T01870172  RH  091%=      5-min Rain = 0
KSM2 260733Z 15004KT 19/17 A2996 RMK A01 T01870173  RH  091%=      5-min Rain = 0
KSM2 260734Z 16005KT 19/17 A2996 RMK A01 T01870172  RH  091%=      5-min Rain = 0
KSM2 260735Z 16004KT 19/17 A2996 RMK A01 T01870172  RH  091%=      5-min Rain = 0
KSM2 260736Z 15004KT 19/17 A2996 RMK A01 T01870172  RH  091%=      5-min Rain = 0
KSM2 260737Z 16004KT 19/17 A2996 RMK A01 T01870172  RH  091%=      5-min Rain = 0
KSM2 260738Z 15005KT 19/17 A2996 RMK A01 T01860172  RH  091%=      5-min Rain = 0
KSM2 260739Z 15004KT 19/17 A2996 RMK A01 T01860172  RH  091%=      5-min Rain = 0
KSM2 260740Z 15004KT 19/17 A2996 RMK A01 T01860172  RH  091%=      5-min Rain = 0
KSM2 260741Z 15004KT 19/17 A2996 RMK A01 T01860172  RH  091%=      5-min Rain = 0
KSM2 260742Z 15004KT 19/17 A2996 RMK A01 T01860172  RH  091%=      5-min Rain = 0
KSM2 260743Z 14004KT 19/17 A2996 RMK A01 T01860172  RH  091%=      5-min Rain = 0
KSM2 260744Z 14003KT 19/17 A2996 RMK A01 T01860172  RH  091%=      5-min Rain = 0
KSM2 260745Z 14003KT 19/17 A2996 RMK A01 T01850172  RH  092%=      5-min Rain = 0
KSM2 260746Z 13004KT 19/17 A2996 RMK A01 T01850171  RH  092%=      5-min Rain = 0
KSM2 260747Z 13003KT 18/17 A2996 RMK A01 T01840171  RH  092%=      5-min Rain = 0
KSM2 260748Z 13003KT 18/17 A2996 RMK A01 T01840171  RH  092%=      5-min Rain = 0
KSM2 260749Z 12002KT 18/17 A2996 RMK A01 T01830170  RH  092%=      5-min Rain = 0
KSM2 260750Z 12002KT 18/17 A2996 RMK A01 T01820169  RH  092%=      5-min Rain = 0
KSM2 260751Z 12002KT 18/17 A2996 RMK A01 T01810169  RH  093%=      5-min Rain = 0
KSM2 260752Z 12002KT 18/17 A2997 RMK A01 T01800169  RH  093%=      5-min Rain = 0
KSM2 260753Z 12003KT 18/17 A2997 RMK A01 T01800169  RH  094%=      5-min Rain = 0
KSM2 260754Z 12002KT 18/17 A2997 RMK A01 T01790170  RH  094%=      5-min Rain = 0
KSM2 260755Z 12003KT 18/17 A2996 RMK A01 T01790170  RH  094%=      5-min Rain = 0
KSM2 260756Z 13002KT 18/17 A2996 RMK A01 T01790170  RH  094%=      5-min Rain = 0
KSM2 260757Z 13002KT 18/17 A2996 RMK A01 T01790170  RH  095%=      5-min Rain = 0
KSM2 260758Z 13002KT 18/17 A2996 RMK A01 T01780170  RH  095%=      5-min Rain = 0
KSM2 260759Z 13002KT 18/17 A2997 RMK A01 T01780170  RH  095%=      5-min Rain = 0
KSM2 260800Z 14002KT 18/17 A2997 RMK A01 T01780170  RH  095%=      5-min Rain = 0
KSM2 260801Z 14002KT 18/17 A2996 RMK A01 T01780170  RH  095%=      5-min Rain = 0
KSM2 260802Z 13002KT 18/17 A2996 RMK A01 T01780170  RH  095%=      5-min Rain = 0
KSM2 260803Z 13002KT 18/17 A2996 RMK A01 T01780170  RH  095%=      5-min Rain = 0
KSM2 260804Z 12002KT 18/17 A2996 RMK A01 T01780170  RH  095%=      5-min Rain = 0
KSM2 260805Z 12003KT 18/17 A2996 RMK A01 T01780170  RH  095%=      5-min Rain = 0
KSM2 260806Z 12003KT 18/17 A2996 RMK A01 T01780170  RH  095%=      5-min Rain = 0
KSM2 260807Z 11003KT 18/17 A2996 RMK A01 T01770169  RH  095%=      5-min Rain = 0
KSM2 260808Z 11003KT 18/17 A2996 RMK A01 T01770169  RH  095%=      5-min Rain = 0
KSM2 260809Z 11003KT 18/17 A2997 RMK A01 T01760169  RH  095%=      5-min Rain = 0
KSM2 260810Z 11002KT 18/17 A2997 RMK A01 T01760169  RH  096%=      5-min Rain = 0
KSM2 260811Z 11002KT 18/17 A2997 RMK A01 T01750168  RH  096%=      5-min Rain = 0
KSM2 260812Z 11002KT 18/17 A2997 RMK A01 T01750168  RH  096%=      5-min Rain = 0
KSM2 260813Z 11002KT 18/17 A2997 RMK A01 T01750168  RH  096%=      5-min Rain = 0
KSM2 260814Z 11002KT 18/17 A2997 RMK A01 T01750168  RH  096%=      5-min Rain = 0
KSM2 260815Z 11002KT 17/17 A2997 RMK A01 T01740168  RH  096%=      5-min Rain = 0
KSM2 260816Z 12002KT 17/17 A2997 RMK A01 T01740169  RH  096%=      5-min Rain = 0
KSM2 260817Z 12002KT 17/17 A2997 RMK A01 T01740168  RH  096%=      5-min Rain = 0
KSM2 260818Z 13002KT 17/17 A2997 RMK A01 T01740168  RH  096%=      5-min Rain = 0
KSM2 260819Z 13002KT 17/17 A2997 RMK A01 T01730168  RH  097%=      5-min Rain = 0
KSM2 260820Z 13002KT 17/17 A2997 RMK A01 T01740168  RH  097%=      5-min Rain = 0
KSM2 260821Z 13002KT 17/17 A2997 RMK A01 T01740169  RH  097%=      5-min Rain = 0
KSM2 260822Z 13002KT 17/17 A2997 RMK A01 T01740170  RH  097%=      5-min Rain = 0
KSM2 260823Z 12002KT 17/17 A2997 RMK A01 T01740169  RH  097%=      5-min Rain = 0
KSM2 260824Z 11002KT 17/17 A2997 RMK A01 T01740169  RH  097%=      5-min Rain = 0
KSM2 260825Z 09002KT 17/17 A2997 RMK A01 T01740169  RH  097%=      5-min Rain = 0
KSM2 260826Z 08003KT 17/17 A2997 RMK A01 T01740168  RH  096%=      5-min Rain = 0
KSM2 260827Z 08004KT 17/17 A2997 RMK A01 T01730167  RH  096%=      5-min Rain = 0
KSM2 260828Z 09005KT 17/17 A2997 RMK A01 T01720166  RH  096%=      5-min Rain = 0
KSM2 260829Z 09005KT 17/17 A2997 RMK A01 T01710165  RH  096%=      5-min Rain = 0
KSM2 260830Z 09006KT 17/17 A2997 RMK A01 T01710165  RH  096%=      5-min Rain = 0
KSM2 260831Z 08006KT 17/16 A2997 RMK A01 T01700164  RH  096%=      5-min Rain = 0
KSM2 260832Z 07005KT 17/16 A2997 RMK A01 T01700164  RH  096%=      5-min Rain = 0
KSM2 260833Z 07004KT 17/16 A2997 RMK A01 T01690163  RH  096%=      5-min Rain = 0
KSM2 260834Z 06004KT 17/16 A2997 RMK A01 T01690164  RH  097%=      5-min Rain = 0
KSM2 260835Z 06004KT 17/16 A2997 RMK A01 T01690164  RH  097%=      5-min Rain = 0
KSM2 260836Z 06003KT 17/17 A2997 RMK A01 T01690165  RH  097%=      5-min Rain = 0
KSM2 260837Z 06003KT 17/17 A2997 RMK A01 T01690165  RH  097%=      5-min Rain = 0
KSM2 260838Z 06003KT 17/17 A2997 RMK A01 T01690165  RH  097%=      5-min Rain = 0
KSM2 260839Z 05004KT 17/17 A2997 RMK A01 T01690165  RH  097%=      5-min Rain = 0
KSM2 260840Z 05003KT 17/17 A2997 RMK A01 T01690165  RH  097%=      5-min Rain = 0
KSM2 260841Z 06002KT 17/17 A2997 RMK A01 T01690165  RH  097%=      5-min Rain = 0
KSM2 260842Z 07003KT 17/17 A2997 RMK A01 T01690165  RH  097%=      5-min Rain = 0
KSM2 260843Z 06003KT 17/17 A2997 RMK A01 T01700166  RH  097%=      5-min Rain = 0
KSM2 260844Z 07004KT 17/17 A2997 RMK A01 T01700166  RH  097%=      5-min Rain = 0
KSM2 260845Z 07004KT 17/17 A2997 RMK A01 T01700166  RH  097%=      5-min Rain = 0
KSM2 260846Z 06003KT 17/17 A2997 RMK A01 T01700166  RH  097%=      5-min Rain = 0
KSM2 260847Z 06003KT 17/17 A2997 RMK A01 T01700166  RH  097%=      5-min Rain = 0
KSM2 260848Z 06002KT 17/17 A2997 RMK A01 T01700166  RH  097%=      5-min Rain = 0
KSM2 260849Z 07002KT 17/17 A2997 RMK A01 T01700166  RH  097%=      5-min Rain = 0
KSM2 260850Z 06002KT 17/17 A2997 RMK A01 T01700166  RH  097%=      5-min Rain = 0
KSM2 260851Z 06003KT 17/17 A2997 RMK A01 T01700166  RH  097%=      5-min Rain = 0
KSM2 260852Z 07003KT 17/17 A2997 RMK A01 T01700166  RH  097%=      5-min Rain = 0
KSM2 260853Z 06002KT 17/17 A2997 RMK A01 T01700166  RH  097%=      5-min Rain = 0
KSM2 260854Z 06002KT 17/17 A2997 RMK A01 T01700166  RH  097%=      5-min Rain = 0
KSM2 260855Z 06002KT 17/17 A2997 RMK A01 T01700165  RH  097%=      5-min Rain = 0
KSM2 260856Z 06002KT 17/17 A2997 RMK A01 T01690165  RH  097%=      5-min Rain = 0
KSM2 260857Z 07002KT 17/17 A2997 RMK A01 T01690165  RH  097%=      5-min Rain = 0
KSM2 260858Z 07002KT 17/17 A2997 RMK A01 T01690165  RH  097%=      5-min Rain = 0
KSM2 260859Z 08003KT 17/17 A2997 RMK A01 T01690165  RH  097%=      5-min Rain = 0
KSM2 260900Z 08003KT 17/17 A2997 RMK A01 T01690165  RH  097%=      5-min Rain = 0
KSM2 260901Z 08003KT 17/16 A2997 RMK A01 T01680164  RH  097%=      5-min Rain = 0
KSM2 260902Z 09003KT 17/16 A2997 RMK A01 T01670162  RH  097%=      5-min Rain = 0
KSM2 260903Z 09003KT 17/16 A2997 RMK A01 T01650160  RH  097%=      5-min Rain = 0
KSM2 260904Z 10003KT 16/16 A2997 RMK A01 T01640159  RH  097%=      5-min Rain = 0
KSM2 260905Z 10003KT 16/16 A2997 RMK A01 T01640160  RH  097%=      5-min Rain = 0
KSM2 260906Z 11004KT 17/16 A2997 RMK A01 T01650162  RH  098%=      5-min Rain = 0
KSM2 260907Z 11004KT 17/16 A2997 RMK A01 T01650161  RH  098%=      5-min Rain = 0
KSM2 260908Z 11004KT 17/16 A2997 RMK A01 T01650161  RH  098%=      5-min Rain = 0
KSM2 260909Z 11005KT 17/16 A2997 RMK A01 T01650162  RH  098%=      5-min Rain = 0
KSM2 260910Z 11005KT 17/16 A2997 RMK A01 T01650162  RH  098%=      5-min Rain = 0
KSM2 260911Z 10005KT 17/16 A2997 RMK A01 T01650162  RH  098%=      5-min Rain = 0
KSM2 260912Z 11006KT 17/16 A2997 RMK A01 T01660162  RH  098%=      5-min Rain = 0
KSM2 260913Z 11006KT 17/16 A2997 RMK A01 T01670164  RH  098%=      5-min Rain = 0
KSM2 260914Z 11006KT 17/17 A2997 RMK A01 T01680166  RH  098%=      5-min Rain = 0
KSM2 260915Z 11006KT 17/17 A2997 RMK A01 T01700167  RH  098%=      5-min Rain = 0
KSM2 260916Z 11005KT 17/17 A2997 RMK A01 T01710169  RH  098%=      5-min Rain = 0
KSM2 260917Z 11005KT 17/17 A2997 RMK A01 T01720169  RH  098%=      5-min Rain = 0
KSM2 260918Z 11005KT 17/17 A2997 RMK A01 T01720168  RH  098%=      5-min Rain = 0
KSM2 260919Z 11006KT 17/17 A2996 RMK A01 T01720169  RH  098%=      5-min Rain = 0
KSM2 260920Z 12005KT 17/17 A2997 RMK A01 T01730169  RH  098%=      5-min Rain = 0
KSM2 260921Z 12006KT 17/17 A2997 RMK A01 T01730169  RH  098%=      5-min Rain = 0
KSM2 260922Z 12005KT 17/17 A2997 RMK A01 T01740170  RH  098%=      5-min Rain = 0
KSM2 260923Z 12005KT 18/17 A2997 RMK A01 T01750170  RH  097%=      5-min Rain = 0
KSM2 260924Z 12005KT 18/17 A2997 RMK A01 T01750170  RH  097%=      5-min Rain = 0
KSM2 260925Z 12005KT 18/17 A2997 RMK A01 T01750170  RH  097%=      5-min Rain = 0
KSM2 260926Z 13006KT 18/17 A2997 RMK A01 T01750170  RH  097%=      5-min Rain = 0
KSM2 260927Z 12006KT 18/17 A2997 RMK A01 T01760170  RH  097%=      5-min Rain = 0
KSM2 260928Z 12005KT 18/17 A2997 RMK A01 T01770171  RH  096%=      5-min Rain = 0
KSM2 260929Z 13006KT 18/17 A2997 RMK A01 T01770171  RH  096%=      5-min Rain = 0
KSM2 260930Z 12006KT 18/17 A2997 RMK A01 T01770171  RH  096%=      5-min Rain = 0
KSM2 260931Z 12005KT 18/17 A2997 RMK A01 T01770170  RH  096%=      5-min Rain = 0
KSM2 260932Z 12006KT 18/17 A2997 RMK A01 T01770170  RH  095%=      5-min Rain = 0
KSM2 260933Z 12005KT 18/17 A2997 RMK A01 T01770170  RH  096%=      5-min Rain = 0
KSM2 260934Z 12005KT 18/17 A2997 RMK A01 T01770170  RH  096%=      5-min Rain = 0
KSM2 260935Z 12005KT 18/17 A2997 RMK A01 T01770170  RH  096%=      5-min Rain = 0
KSM2 260936Z 12006KT 18/17 A2997 RMK A01 T01770170  RH  095%=      5-min Rain = 0
KSM2 260937Z 12005KT 18/17 A2997 RMK A01 T01770170  RH  095%=      5-min Rain = 0
KSM2 260938Z 12005KT 18/17 A2997 RMK A01 T01770170  RH  095%=      5-min Rain = 0
KSM2 260939Z 12005KT 18/17 A2997 RMK A01 T01770169  RH  095%=      5-min Rain = 0
KSM2 260940Z 12005KT 18/17 A2997 RMK A01 T01770169  RH  095%=      5-min Rain = 0
KSM2 260941Z 12005KT 18/17 A2997 RMK A01 T01770169  RH  095%=      5-min Rain = 0
KSM2 260942Z 13006KT 18/17 A2997 RMK A01 T01770169  RH  096%=      5-min Rain = 0
KSM2 260943Z 13006KT 18/17 A2997 RMK A01 T01770170  RH  095%=      5-min Rain = 0
KSM2 260944Z 12005KT 18/17 A2997 RMK A01 T01770170  RH  095%=      5-min Rain = 0
KSM2 260945Z 12005KT 18/17 A2997 RMK A01 T01770170  RH  095%=      5-min Rain = 0
KSM2 260946Z 12004KT 18/17 A2997 RMK A01 T01770169  RH  095%=      5-min Rain = 0
KSM2 260947Z 12005KT 18/17 A2997 RMK A01 T01770169  RH  095%=      5-min Rain = 0
KSM2 260948Z 12004KT 18/17 A2997 RMK A01 T01770169  RH  095%=      5-min Rain = 0
KSM2 260949Z 12005KT 18/17 A2997 RMK A01 T01770169  RH  095%=      5-min Rain = 0
KSM2 260950Z 12004KT 18/17 A2997 RMK A01 T01770170  RH  095%=      5-min Rain = 0
KSM2 260951Z 12004KT 18/17 A2997 RMK A01 T01770169  RH  095%=      5-min Rain = 0
KSM2 260952Z 12004KT 18/17 A2997 RMK A01 T01770170  RH  095%=      5-min Rain = 0
KSM2 260953Z 12005KT 18/17 A2997 RMK A01 T01770170  RH  095%=      5-min Rain = 0
KSM2 260954Z 12005KT 18/17 A2997 RMK A01 T01770170  RH  096%=      5-min Rain = 0
KSM2 260955Z 13006KT 18/17 A2997 RMK A01 T01780171  RH  096%=      5-min Rain = 0
KSM2 260956Z 13005KT 18/17 A2997 RMK A01 T01780172  RH  096%=      5-min Rain = 0
KSM2 260957Z 13005KT 18/17 A2998 RMK A01 T01790172  RH  096%=      5-min Rain = 0
KSM2 260958Z 13006KT 18/17 A2998 RMK A01 T01800173  RH  096%=      5-min Rain = 0
KSM2 260959Z 14007KT 18/17 A2998 RMK A01 T01810173  RH  095%=      5-min Rain = 0
KSM2 261000Z 13007KT 18/17 A2998 RMK A01 T01820174  RH  095%=      5-min Rain = 0
KSM2 261001Z 13006KT 18/17 A2997 RMK A01 T01820174  RH  095%=      5-min Rain = 0
KSM2 261002Z 13007KT 18/17 A2997 RMK A01 T01830174  RH  095%=      5-min Rain = 0
KSM2 261003Z 13007KT 18/17 A2997 RMK A01 T01830174  RH  094%=      5-min Rain = 0
KSM2 261004Z 12006KT 18/17 A2997 RMK A01 T01830174  RH  094%=      5-min Rain = 0
KSM2 261005Z 13007KT 18/17 A2997 RMK A01 T01830174  RH  094%=      5-min Rain = 0
KSM2 261006Z 13007KT 18/18 A2997 RMK A01 T01840175  RH  094%=      5-min Rain = 0
KSM2 261007Z 13007KT 18/18 A2997 RMK A01 T01840175  RH  094%=      5-min Rain = 0
KSM2 261008Z 12008KT 18/18 A2997 RMK A01 T01840175  RH  094%=      5-min Rain = 0
KSM2 261009Z 13007KT 19/18 A2998 RMK A01 T01850175  RH  094%=      5-min Rain = 0
KSM2 261010Z 13007KT 19/18 A2998 RMK A01 T01850175  RH  094%=      5-min Rain = 0
KSM2 261011Z 13008KT 19/18 A2998 RMK A01 T01860176  RH  094%=      5-min Rain = 0
KSM2 261012Z 13006KT 19/18 A2998 RMK A01 T01850175  RH  094%=      5-min Rain = 0
KSM2 261013Z 13007KT 19/18 A2998 RMK A01 T01860176  RH  094%=      5-min Rain = 0
KSM2 261014Z 13007KT 19/18 A2998 RMK A01 T01860176  RH  094%=      5-min Rain = 0
KSM2 261015Z 13007KT 19/18 A2998 RMK A01 T01860176  RH  094%=      5-min Rain = 0
KSM2 261016Z 13007KT 19/18 A2998 RMK A01 T01860176  RH  094%=      5-min Rain = 0
KSM2 261017Z 13008KT 19/18 A2998 RMK A01 T01860176  RH  094%=      5-min Rain = 0
KSM2 261018Z 13007KT 19/18 A2998 RMK A01 T01870177  RH  094%=      5-min Rain = 0
KSM2 261019Z 12007KT 19/18 A2998 RMK A01 T01870177  RH  094%=      5-min Rain = 0
KSM2 261020Z 13007KT 19/18 A2998 RMK A01 T01870177  RH  094%=      5-min Rain = 0
KSM2 261021Z 13005KT 19/18 A2998 RMK A01 T01880177  RH  094%=      5-min Rain = 0
KSM2 261022Z 13006KT 19/18 A2998 RMK A01 T01880178  RH  094%=      5-min Rain = 0
KSM2 261023Z 13006KT 19/18 A2998 RMK A01 T01880178  RH  094%=      5-min Rain = 0
KSM2 261024Z 13006KT 19/18 A2998 RMK A01 T01880178  RH  094%=      5-min Rain = 0
KSM2 261025Z 13006KT 19/18 A2998 RMK A01 T01890179  RH  094%=      5-min Rain = 0
KSM2 261026Z 14007KT 19/18 A2998 RMK A01 T01890178  RH  094%=      5-min Rain = 0
KSM2 261027Z 14007KT 19/18 A2998 RMK A01 T01890179  RH  094%=      5-min Rain = 0
KSM2 261028Z 14006KT 19/18 A2998 RMK A01 T01890179  RH  094%=      5-min Rain = 0
KSM2 261029Z 14008KT 19/18 A2998 RMK A01 T01900179  RH  094%=      5-min Rain = 0
KSM2 261030Z 13008KT 19/18 A2998 RMK A01 T01900179  RH  094%=      5-min Rain = 0
KSM2 261031Z 14007KT 19/18 A2998 RMK A01 T01900180  RH  093%=      5-min Rain = 0
KSM2 261032Z 14006KT 19/18 A2998 RMK A01 T01910180  RH  093%=      5-min Rain = 0
KSM2 261033Z 14007KT 19/18 A2998 RMK A01 T01910180  RH  093%=      5-min Rain = 0
KSM2 261034Z 14006KT 19/18 A2998 RMK A01 T01910180  RH  093%=      5-min Rain = 0
KSM2 261035Z 14007KT 19/18 A2998 RMK A01 T01910180  RH  093%=      5-min Rain = 0
KSM2 261036Z 14006KT 19/18 A2998 RMK A01 T01920181  RH  093%=      5-min Rain = 0
KSM2 261037Z 14007KT 19/18 A2998 RMK A01 T01920180  RH  093%=      5-min Rain = 0
KSM2 261038Z 13008KT 19/18 A2998 RMK A01 T01920181  RH  093%=      5-min Rain = 0
KSM2 261039Z 14008KT 19/18 A2998 RMK A01 T01920181  RH  093%=      5-min Rain = 0
KSM2 261040Z 14008KT 19/18 A2998 RMK A01 T01920181  RH  093%=      5-min Rain = 0
KSM2 261041Z 13006KT 19/18 A2998 RMK A01 T01920181  RH  093%=      5-min Rain = 0
KSM2 261042Z 13007KT 19/18 A2998 RMK A01 T01930181  RH  093%=      5-min Rain = 0
KSM2 261043Z 14007KT 19/18 A2998 RMK A01 T01930181  RH  093%=      5-min Rain = 0
KSM2 261044Z 14007KT 19/18 A2998 RMK A01 T01930181  RH  093%=      5-min Rain = 0
KSM2 261045Z 14007KT 19/18 A2998 RMK A01 T01930181  RH  093%=      5-min Rain = 0
KSM2 261046Z 14007KT 19/18 A2998 RMK A01 T01930182  RH  093%=      5-min Rain = 0
KSM2 261047Z 14008KT 19/18 A2998 RMK A01 T01930182  RH  093%=      5-min Rain = 0
KSM2 261048Z 14006KT 19/18 A2998 RMK A01 T01930181  RH  093%=      5-min Rain = 0
KSM2 261049Z 14008KT 19/18 A2998 RMK A01 T01930182  RH  093%=      5-min Rain = 0
KSM2 261050Z 14007KT 19/18 A2998 RMK A01 T01930182  RH  093%=      5-min Rain = 0
KSM2 261051Z 14008KT 19/18 A2998 RMK A01 T01930182  RH  093%=      5-min Rain = 0
KSM2 261052Z 14008KT 19/18 A2998 RMK A01 T01940182  RH  093%=      5-min Rain = 0
KSM2 261053Z 14008G13KT 19/18 A2998 RMK A01 T01940182  RH  093%=      5-min Rain = 0
KSM2 261054Z 15008KT 19/18 A2998 RMK A01 T01930182  RH  093%=      5-min Rain = 0
KSM2 261055Z 14007KT 19/18 A2998 RMK A01 T01940182  RH  093%=      5-min Rain = 0
KSM2 261056Z 14007KT 19/18 A2998 RMK A01 T01940182  RH  093%=      5-min Rain = 0
KSM2 261057Z 14009KT 19/18 A2998 RMK A01 T01940182  RH  093%=      5-min Rain = 0
KSM2 261058Z 14008KT 19/18 A2998 RMK A01 T01940182  RH  093%=      5-min Rain = 0
KSM2 261059Z 14009KT 19/18 A2998 RMK A01 T01930182  RH  093%=      5-min Rain = 0
KSM2 261100Z 15008KT 19/18 A2998 RMK A01 T01940183  RH  093%=      5-min Rain = 0
KSM2 261101Z 15007KT 19/18 A2998 RMK A01 T01940183  RH  093%=      5-min Rain = 0
KSM2 261102Z 14009KT 19/18 A2998 RMK A01 T01940183  RH  093%=      5-min Rain = 0
KSM2 261103Z 14008KT 19/18 A2998 RMK A01 T01940183  RH  093%=      5-min Rain = 0
KSM2 261104Z 15008KT 19/18 A2998 RMK A01 T01940183  RH  093%=      5-min Rain = 0
KSM2 261105Z 15009KT 19/18 A2998 RMK A01 T01940183  RH  093%=      5-min Rain = 0
KSM2 261106Z 14009KT 19/18 A2998 RMK A01 T01940183  RH  093%=      5-min Rain = 0
KSM2 261107Z 15007KT 20/18 A2998 RMK A01 T01950183  RH  093%=      5-min Rain = 0
KSM2 261108Z 15009KT 20/18 A2998 RMK A01 T01950184  RH  093%=      5-min Rain = 0
KSM2 261109Z 14010KT 20/18 A2998 RMK A01 T01950184  RH  093%=      5-min Rain = 0
KSM2 261110Z 15009KT 20/18 A2998 RMK A01 T01950183  RH  093%=      5-min Rain = 0
KSM2 261111Z 15009KT 20/18 A2998 RMK A01 T01950183  RH  093%=      5-min Rain = 0
KSM2 261112Z 14009KT 20/18 A2998 RMK A01 T01950184  RH  093%=      5-min Rain = 0
KSM2 261113Z 14009KT 20/18 A2998 RMK A01 T01950184  RH  093%=      5-min Rain = 0
KSM2 261114Z 15009KT 20/18 A2998 RMK A01 T01950184  RH  093%=      5-min Rain = 0
KSM2 261115Z 14011KT 20/18 A2998 RMK A01 T01950184  RH  093%=      5-min Rain = 0
KSM2 261116Z 14008KT 20/18 A2998 RMK A01 T01960184  RH  093%=      5-min Rain = 0
KSM2 261117Z 15009KT 20/18 A2998 RMK A01 T01960184  RH  093%=      5-min Rain = 0
KSM2 261118Z 14009KT 20/18 A2998 RMK A01 T01960184  RH  093%=      5-min Rain = 0
KSM2 261119Z 15009KT 20/18 A2998 RMK A01 T01960184  RH  093%=      5-min Rain = 0
KSM2 261120Z 14010KT 20/18 A2998 RMK A01 T01960184  RH  093%=      5-min Rain = 0
KSM2 261121Z 15008KT 20/18 A2998 RMK A01 T01960184  RH  093%=      5-min Rain = 0
KSM2 261122Z 15007KT 20/18 A2998 RMK A01 T01960184  RH  093%=      5-min Rain = 0
KSM2 261123Z 15008KT 20/18 A2998 RMK A01 T01960184  RH  093%=      5-min Rain = 0
KSM2 261124Z 15009KT 20/19 A2998 RMK A01 T01960185  RH  093%=      5-min Rain = 0
KSM2 261125Z 14008KT 20/19 A2998 RMK A01 T01960185  RH  093%=      5-min Rain = 0
KSM2 261126Z 15009KT 20/19 A2999 RMK A01 T01960185  RH  093%=      5-min Rain = 0
KSM2 261127Z 15008KT 20/19 A2999 RMK A01 T01960185  RH  093%=      5-min Rain = 0
KSM2 261128Z 14007KT 20/19 A2999 RMK A01 T01960185  RH  093%=      5-min Rain = 0
KSM2 261129Z 14009KT 20/19 A2998 RMK A01 T01960185  RH  093%=      5-min Rain = 0
KSM2 261130Z 14009KT 20/19 A2998 RMK A01 T01960185  RH  093%=      5-min Rain = 0
KSM2 261131Z 15008KT 20/19 A2998 RMK A01 T01960185  RH  093%=      5-min Rain = 0
KSM2 261132Z 14006KT 20/19 A2998 RMK A01 T01960185  RH  093%=      5-min Rain = 0
KSM2 261133Z 14010KT 20/19 A2998 RMK A01 T01960185  RH  093%=      5-min Rain = 0
KSM2 261134Z 14009KT 20/19 A2999 RMK A01 T01960185  RH  093%=      5-min Rain = 0
KSM2 261135Z 15010KT 20/19 A2999 RMK A01 T01960185  RH  093%=      5-min Rain = 0
KSM2 261136Z 14008KT 20/19 A2999 RMK A01 T01960185  RH  093%=      5-min Rain = 0
KSM2 261137Z 14009KT 20/19 A2999 RMK A01 T01960185  RH  093%=      5-min Rain = 0
KSM2 261138Z 14006KT 20/19 A2999 RMK A01 T01960186  RH  093%=      5-min Rain = 0
KSM2 261139Z 15008KT 20/19 A2999 RMK A01 T01960186  RH  093%=      5-min Rain = 0
KSM2 261140Z 15007KT 20/19 A2999 RMK A01 T01960186  RH  094%=      5-min Rain = 0
KSM2 261141Z 15007KT 20/19 A2999 RMK A01 T01960186  RH  094%=      5-min Rain = 0
KSM2 261142Z 15008KT 20/19 A2999 RMK A01 T01960186  RH  094%=      5-min Rain = 0
KSM2 261143Z 15008KT 20/19 A2999 RMK A01 T01960186  RH  094%=      5-min Rain = 0
KSM2 261144Z 15010KT 20/19 A2999 RMK A01 T01960186  RH  094%=      5-min Rain = 0
KSM2 261145Z 13007KT 20/19 A2999 RMK A01 T01960186  RH  094%=      5-min Rain = 0
KSM2 261146Z 14008KT 20/19 A2999 RMK A01 T01970186  RH  094%=      5-min Rain = 0
KSM2 261147Z 14008KT 20/19 A2999 RMK A01 T01970186  RH  094%=      5-min Rain = 0
KSM2 261148Z 14009KT 20/19 A2999 RMK A01 T01970187  RH  094%=      5-min Rain = 0
KSM2 261149Z 14008KT 20/19 A2999 RMK A01 T01970186  RH  094%=      5-min Rain = 0
KSM2 261150Z 14008KT 20/19 A2999 RMK A01 T01970187  RH  094%=      5-min Rain = 0
KSM2 261151Z 15007KT 20/19 A2999 RMK A01 T01970187  RH  094%=      5-min Rain = 0
KSM2 261152Z 14008KT 20/19 A2999 RMK A01 T01970187  RH  094%=      5-min Rain = 0
KSM2 261153Z 14009KT 20/19 A2999 RMK A01 T01970187  RH  094%=      5-min Rain = 0
KSM2 261154Z 14009KT 20/19 A2999 RMK A01 T01970187  RH  094%=      5-min Rain = 0
KSM2 261155Z 14009KT 20/19 A2999 RMK A01 T01970187  RH  094%=      5-min Rain = 0
KSM2 261156Z 14009KT 20/19 A2999 RMK A01 T01970187  RH  094%=      5-min Rain = 0
KSM2 261157Z 14008KT 20/19 A2999 RMK A01 T01970187  RH  094%=      5-min Rain = 0
KSM2 261158Z 14009KT 20/19 A2999 RMK A01 T01970187  RH  094%=      5-min Rain = 0
KSM2 261159Z 14010KT 20/19 A2999 RMK A01 T01970187  RH  094%=      5-min Rain = 0
KSM2 261200Z 14010KT 20/19 A2999 RMK A01 T01970187  RH  094%=      5-min Rain = 0
KSM2 261201Z 15010KT 20/19 A2999 RMK A01 T01980187  RH  094%=      5-min Rain = 0
KSM2 261202Z 15010KT 20/19 A2999 RMK A01 T01980187  RH  094%=      5-min Rain = 0
KSM2 261203Z 14009KT 20/19 A2999 RMK A01 T01980187  RH  094%=      5-min Rain = 0
KSM2 261204Z 15009KT 20/19 A2999 RMK A01 T01980187  RH  094%=      5-min Rain = 0
KSM2 261205Z 15009KT 20/19 A2999 RMK A01 T01980188  RH  094%=      5-min Rain = 0
KSM2 261206Z 15008KT 20/19 A2999 RMK A01 T01980188  RH  094%=      5-min Rain = 0
KSM2 261207Z 15008KT 20/19 A2999 RMK A01 T01980188  RH  094%=      5-min Rain = 0
KSM2 261208Z 15011KT 20/19 A2999 RMK A01 T01980188  RH  094%=      5-min Rain = 0
KSM2 261209Z 15008KT 20/19 A2999 RMK A01 T01980188  RH  094%=      5-min Rain = 0
KSM2 261210Z 15010KT 20/19 A2999 RMK A01 T01990188  RH  094%=      5-min Rain = 0
KSM2 261211Z 15011KT 20/19 A2999 RMK A01 T01990188  RH  094%=      5-min Rain = 0
KSM2 261212Z 14009KT 20/19 A2999 RMK A01 T01990188  RH  093%=      5-min Rain = 0
KSM2 261213Z 14009KT 20/19 A2999 RMK A01 T01990188  RH  093%=      5-min Rain = 0
KSM2 261214Z 14012KT 20/19 A2999 RMK A01 T01990188  RH  093%=      5-min Rain = 0
KSM2 261215Z 14011G16KT 20/19 A2999 RMK A01 T01990188  RH  093%=      5-min Rain = 0
KSM2 261216Z 14013KT 20/19 A2999 RMK A01 T01990188  RH  093%=      5-min Rain = 0
KSM2 261217Z 14011KT 20/19 A2999 RMK A01 T01990188  RH  093%=      5-min Rain = 0
KSM2 261218Z 14010KT 20/19 A2999 RMK A01 T01990188  RH  093%=      5-min Rain = 0
KSM2 261219Z 14010KT 20/19 A2999 RMK A01 T01990188  RH  093%=      5-min Rain = 0
KSM2 261220Z 15011KT 20/19 A2999 RMK A01 T02000188  RH  093%=      5-min Rain = 0
KSM2 261221Z 15011KT 20/19 A2999 RMK A01 T02000188  RH  093%=      5-min Rain = 0
KSM2 261222Z 15011KT 20/19 A2999 RMK A01 T02000188  RH  093%=      5-min Rain = 0
KSM2 261223Z 15012KT 20/19 A2999 RMK A01 T02000188  RH  093%=      5-min Rain = 0
KSM2 261224Z 15012KT 20/19 A2999 RMK A01 T01990188  RH  093%=      5-min Rain = 0
KSM2 261225Z 14012KT 20/19 A2999 RMK A01 T02000188  RH  093%=      5-min Rain = 0
KSM2 261226Z 14010KT 20/19 A2999 RMK A01 T02000188  RH  093%=      5-min Rain = 0
KSM2 261227Z 15010G15KT 20/19 A2999 RMK A01 T02000188  RH  093%=      5-min Rain = 0
KSM2 261228Z 15010KT 20/19 A2999 RMK A01 T02000189  RH  093%=      5-min Rain = 0
KSM2 261229Z 15010KT 20/19 A2999 RMK A01 T02000189  RH  093%=      5-min Rain = 0
KSM2 261230Z 14009KT 20/19 A2999 RMK A01 T02000189  RH  093%=      5-min Rain = 0
KSM2 261231Z 14010KT 20/19 A2999 RMK A01 T02000189  RH  093%=      5-min Rain = 0
KSM2 261232Z 14010KT 20/19 A2999 RMK A01 T02000189  RH  093%=      5-min Rain = 0
KSM2 261233Z 14010KT 20/19 A2999 RMK A01 T02000189  RH  093%=      5-min Rain = 0
KSM2 261234Z 15010KT 20/19 A2999 RMK A01 T02000189  RH  093%=      5-min Rain = 0
KSM2 261235Z 15009KT 20/19 A2999 RMK A01 T02000189  RH  093%=      5-min Rain = 0
KSM2 261236Z 15009KT 20/19 A2999 RMK A01 T02000189  RH  093%=      5-min Rain = 0
KSM2 261237Z 14010KT 20/19 A2999 RMK A01 T02000189  RH  093%=      5-min Rain = 0
KSM2 261238Z 15009G14KT 20/19 A2999 RMK A01 T02000189  RH  093%=      5-min Rain = 0
KSM2 261239Z 15010KT 20/19 A2999 RMK A01 T02000189  RH  093%=      5-min Rain = 0
KSM2 261240Z 14010G16KT 20/19 A2999 RMK A01 T02000188  RH  093%=      5-min Rain = 0
KSM2 261241Z 14012G17KT 20/19 A2999 RMK A01 T02000188  RH  093%=      5-min Rain = 0
KSM2 261242Z 14010KT 20/19 A2999 RMK A01 T02000189  RH  093%=      5-min Rain = 0
KSM2 261243Z 15010KT 20/19 A2999 RMK A01 T02000189  RH  093%=      5-min Rain = 0
KSM2 261244Z 14010KT 20/19 A2999 RMK A01 T02010189  RH  093%=      5-min Rain = 0
KSM2 261245Z 14011KT 20/19 A2999 RMK A01 T02000189  RH  093%=      5-min Rain = 0
KSM2 261246Z 15010KT 20/19 A2999 RMK A01 T02000189  RH  093%=      5-min Rain = 0
KSM2 261247Z 15010KT 20/19 A2999 RMK A01 T02010189  RH  093%=      5-min Rain = 0
KSM2 261248Z 14010KT 20/19 A2999 RMK A01 T02010189  RH  093%=      5-min Rain = 0
KSM2 261249Z 15011G16KT 20/19 A2999 RMK A01 T02010189  RH  093%=      5-min Rain = 0
KSM2 261250Z 15010KT 20/19 A2999 RMK A01 T02010189  RH  093%=      5-min Rain = 0
KSM2 261251Z 15009KT 20/19 A2999 RMK A01 T02010189  RH  093%=      5-min Rain = 0
KSM2 261252Z 15010KT 20/19 A2999 RMK A01 T02010189  RH  093%=      5-min Rain = 0
KSM2 261253Z 15010KT 20/19 A2999 RMK A01 T02010189  RH  093%=      5-min Rain = 0
KSM2 261254Z 15012KT 20/19 A2999 RMK A01 T02010189  RH  093%=      5-min Rain = 0
KSM2 261255Z 15011KT 20/19 A2999 RMK A01 T02010189  RH  093%=      5-min Rain = 0
KSM2 261256Z 14010KT 20/19 A2999 RMK A01 T02010189  RH  093%=      5-min Rain = 0
KSM2 261257Z 15009KT 20/19 A2999 RMK A01 T02010189  RH  093%=      5-min Rain = 0
KSM2 261258Z 15010G15KT 20/19 A2999 RMK A01 T02010189  RH  093%=      5-min Rain = 0
KSM2 261259Z 14010KT 20/19 A2999 RMK A01 T02020189  RH  093%=      5-min Rain = 0
KSM2 261300Z 14008KT 20/19 A2999 RMK A01 T02020190  RH  093%=      5-min Rain = 0
KSM2 261301Z 15011G16KT 20/19 A2999 RMK A01 T02020190  RH  093%=      5-min Rain = 0
KSM2 261302Z 14012KT 20/19 A2999 RMK A01 T02020190  RH  093%=      5-min Rain = 0
KSM2 261303Z 14011KT 20/19 A2999 RMK A01 T02020189  RH  092%=      5-min Rain = 0
KSM2 261304Z 14012KT 20/19 A2999 RMK A01 T02020189  RH  092%=      5-min Rain = 0
KSM2 261305Z 15012G17KT 20/19 A2999 RMK A01 T02020189  RH  092%=      5-min Rain = 0
KSM2 261306Z 14012KT 20/19 A2999 RMK A01 T02020189  RH  092%=      5-min Rain = 0
KSM2 261307Z 15012KT 20/19 A2999 RMK A01 T02020189  RH  092%=      5-min Rain = 0
KSM2 261308Z 15011KT 20/19 A2999 RMK A01 T02020189  RH  092%=      5-min Rain = 0
KSM2 261309Z 15011KT 20/19 A2999 RMK A01 T02020189  RH  092%=      5-min Rain = 0
KSM2 261310Z 14011KT 20/19 A2999 RMK A01 T02020189  RH  092%=      5-min Rain = 0
KSM2 261311Z 15011KT 20/19 A2999 RMK A01 T02030189  RH  092%=      5-min Rain = 0
KSM2 261312Z 14010G15KT 20/19 A2999 RMK A01 T02030190  RH  092%=      5-min Rain = 0
KSM2 261313Z 14012KT 20/19 A2999 RMK A01 T02030189  RH  092%=      5-min Rain = 0
KSM2 261314Z 14011KT 20/19 A2999 RMK A01 T02030189  RH  092%=      5-min Rain = 0
KSM2 261315Z 14010G16KT 20/19 A2999 RMK A01 T02030189  RH  092%=      5-min Rain = 0
KSM2 261316Z 15011KT 20/19 A2999 RMK A01 T02030189  RH  092%=      5-min Rain = 0
KSM2 261317Z 14010KT 20/19 A2999 RMK A01 T02030190  RH  092%=      5-min Rain = 0
KSM2 261318Z 14009KT 20/19 A2999 RMK A01 T02030189  RH  092%=      5-min Rain = 0
KSM2 261319Z 15011KT 20/19 A2999 RMK A01 T02030190  RH  092%=      5-min Rain = 0
KSM2 261320Z 15012KT 20/19 A2999 RMK A01 T02030190  RH  092%=      5-min Rain = 0
KSM2 261321Z 15012KT 20/19 A2999 RMK A01 T02030189  RH  092%=      5-min Rain = 0
KSM2 261322Z 14012KT 20/19 A2999 RMK A01 T02030189  RH  092%=      5-min Rain = 0
KSM2 261323Z 14010KT 20/19 A2999 RMK A01 T02030190  RH  092%=      5-min Rain = 0
KSM2 261324Z 14012G18KT 20/19 A2999 RMK A01 T02030190  RH  092%=      5-min Rain = 0
KSM2 261325Z 15012KT 20/19 A2999 RMK A01 T02030190  RH  092%=      5-min Rain = 0
KSM2 261326Z 15011G17KT 20/19 A2999 RMK A01 T02030190  RH  092%=      5-min Rain = 0
KSM2 261327Z 14011KT 20/19 A2999 RMK A01 T02030189  RH  092%=      5-min Rain = 0
KSM2 261328Z 15011G16KT 20/19 A2999 RMK A01 T02030189  RH  092%=      5-min Rain = 0
KSM2 261329Z 15013KT 20/19 A2999 RMK A01 T02030189  RH  092%=      5-min Rain = 0
KSM2 261330Z 15010KT 20/19 A2999 RMK A01 T02030189  RH  092%=      5-min Rain = 0
KSM2 261331Z 15012KT 20/19 A2999 RMK A01 T02030189  RH  092%=      5-min Rain = 0
KSM2 261332Z 15012KT 20/19 A2999 RMK A01 T02030189  RH  092%=      5-min Rain = 0
KSM2 261333Z 15010KT 20/19 A2999 RMK A01 T02030189  RH  092%=      5-min Rain = 0
KSM2 261334Z 15009KT 20/19 A2999 RMK A01 T02030189  RH  092%=      5-min Rain = 0
KSM2 261335Z 16010G15KT 20/19 A2999 RMK A01 T02030190  RH  092%=      5-min Rain = 0
KSM2 261336Z 15010KT 20/19 A2999 RMK A01 T02040190  RH  092%=      5-min Rain = 0
KSM2 261337Z 15010KT 20/19 A2999 RMK A01 T02040190  RH  092%=      5-min Rain = 0
KSM2 261338Z 15011KT 20/19 A2999 RMK A01 T02040190  RH  092%=      5-min Rain = 0
KSM2 261339Z 15012KT 20/19 A2999 RMK A01 T02040189  RH  091%=      5-min Rain = 0
KSM2 261340Z 15011KT 20/19 A30 RMK A01 T02030189  RH  091%=      5-min Rain = 0
KSM2 261341Z 15012KT 20/19 A30 RMK A01 T02040189  RH  091%=      5-min Rain = 0
KSM2 261342Z 16011KT 20/19 A30 RMK A01 T02040189  RH  091%=      5-min Rain = 0
KSM2 261343Z 16014KT 20/19 A30 RMK A01 T02040189  RH  091%=      5-min Rain = 0
KSM2 261344Z 15014KT 20/19 A30 RMK A01 T02040189  RH  091%=      5-min Rain = 0
KSM2 261345Z 16011KT 20/19 A30 RMK A01 T02040189  RH  091%=      5-min Rain = 0
KSM2 261346Z 15011KT 20/19 A30 RMK A01 T02040189  RH  091%=      5-min Rain = 0
KSM2 261347Z 15010KT 20/19 A30 RMK A01 T02040190  RH  091%=      5-min Rain = 0
KSM2 261348Z 16010KT 20/19 A30 RMK A01 T02040190  RH  091%=      5-min Rain = 0
KSM2 261349Z 15011KT 20/19 A30 RMK A01 T02040189  RH  091%=      5-min Rain = 0
KSM2 261350Z 15010KT 21/19 A30 RMK A01 T02050189  RH  091%=      5-min Rain = 0
KSM2 261351Z 16008G13KT 21/19 A30 RMK A01 T02050190  RH  091%=      5-min Rain = 0
KSM2 261352Z 16010G16KT 21/19 A3001 RMK A01 T02050190  RH  091%=      5-min Rain = 0
KSM2 261353Z 15011G16KT 21/19 A3001 RMK A01 T02060190  RH  091%=      5-min Rain = 0
KSM2 261354Z 16009G14KT 21/19 A3001 RMK A01 T02050190  RH  091%=      5-min Rain = 0
KSM2 261355Z 16010G15KT 21/19 A3001 RMK A01 T02060190  RH  091%=      5-min Rain = 0
KSM2 261356Z 16009KT 21/19 A3001 RMK A01 T02060190  RH  091%=      5-min Rain = 0
KSM2 261357Z 16009KT 21/19 A3001 RMK A01 T02060191  RH  091%=      5-min Rain = 0
KSM2 261358Z 16011KT 21/19 A3001 RMK A01 T02060190  RH  091%=      5-min Rain = 0
KSM2 261359Z 16010KT 21/19 A3001 RMK A01 T02070190  RH  090%=      5-min Rain = 0
KSM2 261400Z 15008KT 21/19 A3001 RMK A01 T02070191  RH  090%=      5-min Rain = 0
KSM2 261401Z 16009KT 21/19 A3001 RMK A01 T02070191  RH  090%=      5-min Rain = 0
KSM2 261402Z 17011KT 21/19 A3001 RMK A01 T02070190  RH  090%=      5-min Rain = 0
KSM2 261403Z 15010KT 21/19 A3001 RMK A01 T02070190  RH  090%=      5-min Rain = 0
KSM2 261404Z 16010KT 21/19 A3001 RMK A01 T02070190  RH  090%=      5-min Rain = 0
KSM2 261405Z 16011KT 21/19 A3001 RMK A01 T02070190  RH  090%=      5-min Rain = 0
KSM2 261406Z 16008KT 21/19 A3001 RMK A01 T02070190  RH  090%=      5-min Rain = 0
KSM2 261407Z 16009KT 21/19 A3001 RMK A01 T02070190  RH  090%=      5-min Rain = 0
KSM2 261408Z 16011KT 21/19 A3001 RMK A01 T02070190  RH  090%=      5-min Rain = 0
KSM2 261409Z 16011KT 21/19 A3001 RMK A01 T02070190  RH  090%=      5-min Rain = 0
KSM2 261410Z 16013KT 21/19 A3001 RMK A01 T02070189  RH  089%=      5-min Rain = 0
KSM2 261411Z 16013KT 21/19 A3001 RMK A01 T02070189  RH  089%=      5-min Rain = 0
KSM2 261412Z 16010G15KT 21/19 A3001 RMK A01 T02070189  RH  089%=      5-min Rain = 0
KSM2 261413Z 16012G17KT 21/19 A3001 RMK A01 T02080190  RH  089%=      5-min Rain = 0
KSM2 261414Z 16012KT 21/19 A3001 RMK A01 T02080189  RH  089%=      5-min Rain = 0
KSM2 261415Z 16013KT 21/19 A3001 RMK A01 T02080189  RH  089%=      5-min Rain = 0
KSM2 261416Z 16011KT 21/19 A3001 RMK A01 T02080189  RH  089%=      5-min Rain = 0
KSM2 261417Z 16011KT 21/19 A3002 RMK A01 T02080189  RH  089%=      5-min Rain = 0
KSM2 261418Z 16009KT 21/19 A3002 RMK A01 T02080190  RH  089%=      5-min Rain = 0
KSM2 261419Z 16011KT 21/19 A3002 RMK A01 T02080190  RH  089%=      5-min Rain = 0
KSM2 261420Z 16010KT 21/19 A3002 RMK A01 T02080190  RH  089%=      5-min Rain = 0
KSM2 261421Z 17008KT 21/19 A3002 RMK A01 T02090191  RH  090%=      5-min Rain = 0
KSM2 261422Z 16010G15KT 21/19 A3002 RMK A01 T02090191  RH  089%=      5-min Rain = 0
KSM2 261423Z 17012KT 21/19 A3002 RMK A01 T02090190  RH  089%=      5-min Rain = 0
KSM2 261424Z 16009KT 21/19 A3002 RMK A01 T02090190  RH  089%=      5-min Rain = 0
KSM2 261425Z 16010KT 21/19 A3002 RMK A01 T02090190  RH  089%=      5-min Rain = 0
KSM2 261426Z 16009KT 21/19 A3002 RMK A01 T02090190  RH  089%=      5-min Rain = 0
KSM2 261427Z 16010KT 21/19 A3002 RMK A01 T02090190  RH  089%=      5-min Rain = 0
KSM2 261428Z 16011KT 21/19 A3002 RMK A01 T02090190  RH  089%=      5-min Rain = 0
KSM2 261429Z 16011KT 21/19 A3002 RMK A01 T02100190  RH  089%=      5-min Rain = 0
KSM2 261430Z 17011KT 21/19 A3002 RMK A01 T02100190  RH  089%=      5-min Rain = 0
KSM2 261431Z 16011KT 21/19 A3002 RMK A01 T02100190  RH  088%=      5-min Rain = 0
KSM2 261432Z 16009KT 21/19 A3002 RMK A01 T02100190  RH  088%=      5-min Rain = 0
KSM2 261433Z 16010KT 21/19 A3002 RMK A01 T02100190  RH  088%=      5-min Rain = 0
KSM2 261434Z 16013KT 21/19 A3002 RMK A01 T02100190  RH  088%=      5-min Rain = 0
KSM2 261435Z 16011KT 21/19 A3002 RMK A01 T02100190  RH  088%=      5-min Rain = 0
KSM2 261436Z 16010KT 21/19 A3002 RMK A01 T02100190  RH  088%=      5-min Rain = 0
KSM2 261437Z 16010KT 21/19 A3002 RMK A01 T02100190  RH  088%=      5-min Rain = 0
KSM2 261438Z 16011KT 21/19 A3002 RMK A01 T02100190  RH  088%=      5-min Rain = 0
KSM2 261439Z 16010KT 21/19 A3002 RMK A01 T02100190  RH  088%=      5-min Rain = 0
KSM2 261440Z 16008KT 21/19 A3002 RMK A01 T02100190  RH  089%=      5-min Rain = 0
KSM2 261441Z 16010KT 21/19 A3002 RMK A01 T02100190  RH  088%=      5-min Rain = 0
KSM2 261442Z 15011KT 21/19 A3002 RMK A01 T02100191  RH  089%=      5-min Rain = 0
KSM2 261443Z 16011KT 21/19 A3002 RMK A01 T02100190  RH  088%=      5-min Rain = 0
KSM2 261444Z 17010KT 21/19 A3002 RMK A01 T02100190  RH  088%=      5-min Rain = 0
KSM2 261445Z 16009KT 21/19 A3002 RMK A01 T02110190  RH  088%=      5-min Rain = 0
KSM2 261446Z 16011KT 21/19 A3002 RMK A01 T02110191  RH  088%=      5-min Rain = 0
KSM2 261447Z 16008KT 21/19 A3001 RMK A01 T02110190  RH  088%=      5-min Rain = 0
KSM2 261448Z 15010KT 21/19 A3001 RMK A01 T02120190  RH  088%=      5-min Rain = 0
KSM2 261449Z 16011KT 21/19 A3001 RMK A01 T02120190  RH  088%=      5-min Rain = 0
KSM2 261450Z 16010KT 21/19 A3001 RMK A01 T02120191  RH  088%=      5-min Rain = 0
KSM2 261451Z 16010KT 21/19 A3001 RMK A01 T02120191  RH  087%=      5-min Rain = 0
KSM2 261452Z 16011KT 21/19 A3001 RMK A01 T02130190  RH  087%=      5-min Rain = 0
KSM2 261453Z 16011KT 21/19 A3001 RMK A01 T02130191  RH  087%=      5-min Rain = 0
KSM2 261454Z 16011KT 21/19 A3001 RMK A01 T02130190  RH  087%=      5-min Rain = 0
KSM2 261455Z 16008KT 21/19 A3001 RMK A01 T02130190  RH  087%=      5-min Rain = 0
KSM2 261456Z 16009KT 21/19 A3001 RMK A01 T02130191  RH  087%=      5-min Rain = 0
KSM2 261457Z 16010G15KT 21/19 A3001 RMK A01 T02130190  RH  087%=      5-min Rain = 0
KSM2 261458Z 16011KT 21/19 A3001 RMK A01 T02130191  RH  087%=      5-min Rain = 0
KSM2 261459Z 15009KT 21/19 A3001 RMK A01 T02130191  RH  087%=      5-min Rain = 0
KSM2 261500Z 15011KT 21/19 A3001 RMK A01 T02140191  RH  087%=      5-min Rain = 0
KSM2 261501Z 15012KT 21/19 A3001 RMK A01 T02140190  RH  086%=      5-min Rain = 0
KSM2 261502Z 16012KT 21/19 A3001 RMK A01 T02140189  RH  086%=      5-min Rain = 0
KSM2 261503Z 15011KT 21/19 A3001 RMK A01 T02140190  RH  086%=      5-min Rain = 0
KSM2 261504Z 15011KT 21/19 A3001 RMK A01 T02140190  RH  086%=      5-min Rain = 0
KSM2 261505Z 16010KT 21/19 A3001 RMK A01 T02140190  RH  086%=      5-min Rain = 0
KSM2 261506Z 16012KT 22/19 A3001 RMK A01 T02150190  RH  086%=      5-min Rain = 0
KSM2 261507Z 15012KT 21/19 A3001 RMK A01 T02140189  RH  086%=      5-min Rain = 0
KSM2 261508Z 16009KT 21/19 A3001 RMK A01 T02140190  RH  086%=      5-min Rain = 0
KSM2 261509Z 15010KT 21/19 A3001 RMK A01 T02140191  RH  087%=      5-min Rain = 0
KSM2 261510Z 15011KT 21/19 A3001 RMK A01 T02140191  RH  087%=      5-min Rain = 0
KSM2 261511Z 15012G17KT 21/19 A3001 RMK A01 T02140190  RH  086%=      5-min Rain = 0
KSM2 261512Z 15011G16KT 21/19 A3001 RMK A01 T02140190  RH  086%=      5-min Rain = 0
KSM2 261513Z 16013KT 21/19 A3001 RMK A01 T02140190  RH  086%=      5-min Rain = 0
KSM2 261514Z 15011KT 21/19 A3001 RMK A01 T02130189  RH  086%=      5-min Rain = 0
KSM2 261515Z 15015KT 21/19 A3001 RMK A01 T02130190  RH  086%=      5-min Rain = 0
KSM2 261516Z 15014KT 21/19 A3001 RMK A01 T02130190  RH  086%=      5-min Rain = 0
KSM2 261517Z 15011G18KT 21/19 A3001 RMK A01 T02130190  RH  087%=      5-min Rain = 0
KSM2 261518Z 16010KT 21/19 A3001 RMK A01 T02130191  RH  087%=      5-min Rain = 0
KSM2 261519Z 16011KT 21/19 A3001 RMK A01 T02140191  RH  086%=      5-min Rain = 0
KSM2 261520Z 16012G17KT 22/19 A3001 RMK A01 T02150191  RH  086%=      5-min Rain = 0
KSM2 261521Z 17014G19KT 22/19 A3001 RMK A01 T02150191  RH  086%=      5-min Rain = 0
KSM2 261522Z 17013KT 22/19 A3001 RMK A01 T02160190  RH  085%=      5-min Rain = 0
KSM2 261523Z 16012KT 22/19 A3001 RMK A01 T02150191  RH  086%=      5-min Rain = 0
KSM2 261524Z 16013KT 22/19 A3001 RMK A01 T02150190  RH  085%=      5-min Rain = 0
KSM2 261525Z 15011KT 22/19 A3001 RMK A01 T02160190  RH  085%=      5-min Rain = 0
KSM2 261526Z 15013KT 22/19 A3001 RMK A01 T02160190  RH  085%=      5-min Rain = 0
KSM2 261527Z 15012G17KT 22/19 A3001 RMK A01 T02160190  RH  085%=      5-min Rain = 0
KSM2 261528Z 15014KT 22/19 A3001 RMK A01 T02160189  RH  085%=      5-min Rain = 0
KSM2 261529Z 15011KT 22/19 A3001 RMK A01 T02160189  RH  085%=      5-min Rain = 0
KSM2 261530Z 15013KT 22/19 A3001 RMK A01 T02160190  RH  085%=      5-min Rain = 0
KSM2 261531Z 16014KT 22/19 A3001 RMK A01 T02160190  RH  085%=      5-min Rain = 0
KSM2 261532Z 16011G16KT 22/19 A3001 RMK A01 T02160190  RH  085%=      5-min Rain = 0
KSM2 261533Z 16012G17KT 22/19 A3001 RMK A01 T02160190  RH  085%=      5-min Rain = 0
KSM2 261534Z 15012KT 22/19 A3001 RMK A01 T02170190  RH  085%=      5-min Rain = 0
KSM2 261535Z 16011KT 22/19 A3001 RMK A01 T02170190  RH  085%=      5-min Rain = 0
KSM2 261536Z 16014G19KT 22/19 A3001 RMK A01 T02170191  RH  085%=      5-min Rain = 0
KSM2 261537Z 16013KT 22/19 A3001 RMK A01 T02170190  RH  085%=      5-min Rain = 0
KSM2 261538Z 16012KT 22/19 A3001 RMK A01 T02170190  RH  085%=      5-min Rain = 0
KSM2 261539Z 16012G17KT 22/19 A3001 RMK A01 T02170190  RH  085%=      5-min Rain = 0
KSM2 261540Z 16014KT 22/19 A3001 RMK A01 T02170190  RH  084%=      5-min Rain = 0
KSM2 261541Z 16013G19KT 22/19 A30 RMK A01 T02170190  RH  085%=      5-min Rain = 0
KSM2 261542Z 15016G21KT 22/19 A30 RMK A01 T02170189  RH  084%=      5-min Rain = 0
KSM2 261543Z 16015KT 22/19 A30 RMK A01 T02170188  RH  084%=      5-min Rain = 0
KSM2 261544Z 16014KT 22/19 A30 RMK A01 T02180189  RH  084%=      5-min Rain = 0
KSM2 261545Z 15012KT 22/19 A30 RMK A01 T02180190  RH  084%=      5-min Rain = 0
KSM2 261546Z 16011KT 22/19 A30 RMK A01 T02190191  RH  084%=      5-min Rain = 0
KSM2 261547Z 15013KT 22/19 A30 RMK A01 T02200191  RH  084%=      5-min Rain = 0
KSM2 261548Z 16014KT 22/19 A30 RMK A01 T02210191  RH  083%=      5-min Rain = 0
KSM2 261549Z 15013KT 22/19 A30 RMK A01 T02210190  RH  083%=      5-min Rain = 0
KSM2 261550Z 15012KT 22/19 A30 RMK A01 T02210192  RH  083%=      5-min Rain = 0
KSM2 261551Z 16013G18KT 22/19 A30 RMK A01 T02220192  RH  083%=      5-min Rain = 0
KSM2 261552Z 15013KT 22/19 A30 RMK A01 T02230192  RH  083%=      5-min Rain = 0
KSM2 261553Z 16014KT 22/19 A30 RMK A01 T02220191  RH  083%=      5-min Rain = 0
KSM2 261554Z 15015G20KT 22/19 A30 RMK A01 T02220191  RH  082%=      5-min Rain = 0
KSM2 261555Z 16014G19KT 22/19 A30 RMK A01 T02220190  RH  082%=      5-min Rain = 0
KSM2 261556Z 15013KT 22/19 A30 RMK A01 T02220191  RH  082%=      5-min Rain = 0
KSM2 261557Z 15013KT 22/19 A30 RMK A01 T02220190  RH  082%=      5-min Rain = 0
KSM2 261558Z 15016KT 22/19 A3001 RMK A01 T02220189  RH  082%=      5-min Rain = 0
KSM2 261559Z 15013KT 22/19 A30 RMK A01 T02220190  RH  082%=      5-min Rain = 0
KSM2 261600Z 16014KT 22/19 A3001 RMK A01 T02220190  RH  082%=      5-min Rain = 0
KSM2 261601Z 16010KT 22/19 A3001 RMK A01 T02220191  RH  083%=      5-min Rain = 0
KSM2 261602Z 15013KT 22/19 A3001 RMK A01 T02220191  RH  083%=      5-min Rain = 0
KSM2 261603Z 15013KT 22/19 A3001 RMK A01 T02220190  RH  082%=      5-min Rain = 0
KSM2 261604Z 15011KT 22/19 A3001 RMK A01 T02220191  RH  082%=      5-min Rain = 0
KSM2 261605Z 16011G16KT 22/19 A3001 RMK A01 T02230192  RH  083%=      5-min Rain = 0
KSM2 261606Z 15013KT 22/19 A3001 RMK A01 T02230191  RH  082%=      5-min Rain = 0
KSM2 261607Z 16012KT 22/19 A3001 RMK A01 T02240192  RH  082%=      5-min Rain = 0
KSM2 261608Z 15012KT 22/19 A3001 RMK A01 T02240192  RH  082%=      5-min Rain = 0
KSM2 261609Z 16014KT 22/19 A3001 RMK A01 T02240191  RH  082%=      5-min Rain = 0
KSM2 261610Z 15012KT 22/19 A30 RMK A01 T02240192  RH  082%=      5-min Rain = 0
KSM2 261611Z 15010G15KT 23/19 A30 RMK A01 T02250193  RH  082%=      5-min Rain = 0
KSM2 261612Z 16014KT 23/19 A30 RMK A01 T02260192  RH  081%=      5-min Rain = 0
KSM2 261613Z 15014KT 23/19 A30 RMK A01 T02250191  RH  081%=      5-min Rain = 0
KSM2 261614Z 16012G17KT 23/19 A30 RMK A01 T02250191  RH  081%=      5-min Rain = 0
KSM2 261615Z 16013KT 22/19 A30 RMK A01 T02240192  RH  082%=      5-min Rain = 0
KSM2 261616Z 17012KT 22/19 A3001 RMK A01 T02240192  RH  082%=      5-min Rain = 0
KSM2 261617Z 16010KT 22/19 A3001 RMK A01 T02240191  RH  082%=      5-min Rain = 0
KSM2 261618Z 16012KT 23/19 A3001 RMK A01 T02250192  RH  081%=      5-min Rain = 0
KSM2 261619Z 16010G15KT 23/19 A3001 RMK A01 T02250193  RH  082%=      5-min Rain = 0
KSM2 261620Z 17012KT 23/19 A3001 RMK A01 T02250191  RH  081%=      5-min Rain = 0
KSM2 261621Z 16014KT 23/19 A3001 RMK A01 T02260191  RH  081%=      5-min Rain = 0
KSM2 261622Z 16012KT 23/19 A3001 RMK A01 T02250190  RH  080%=      5-min Rain = 0
KSM2 261623Z 15012KT 23/19 A3001 RMK A01 T02250192  RH  081%=      5-min Rain = 0
KSM2 261624Z 16011G18KT 23/19 A3001 RMK A01 T02250192  RH  082%=      5-min Rain = 0
KSM2 261625Z 16011KT 23/19 A3001 RMK A01 T02250190  RH  081%=      5-min Rain = 0
KSM2 261626Z 16010KT 23/19 A3001 RMK A01 T02250191  RH  081%=      5-min Rain = 0
KSM2 261627Z 15012KT 23/19 A3001 RMK A01 T02250192  RH  082%=      5-min Rain = 0
KSM2 261628Z 16012KT 23/19 A3001 RMK A01 T02250191  RH  081%=      5-min Rain = 0
KSM2 261629Z 16011KT 22/19 A3001 RMK A01 T02240191  RH  081%=      5-min Rain = 0
KSM2 261630Z 16014KT 22/19 A3001 RMK A01 T02240191  RH  082%=      5-min Rain = 0
KSM2 261631Z 16011KT 23/19 A3001 RMK A01 T02250191  RH  081%=      5-min Rain = 0
KSM2 261632Z 16012KT 23/19 A3001 RMK A01 T02250191  RH  081%=      5-min Rain = 0
KSM2 261633Z 16011G18KT 23/19 A3001 RMK A01 T02260193  RH  082%=      5-min Rain = 0
KSM2 261634Z 16012KT 23/19 A3001 RMK A01 T02260192  RH  081%=      5-min Rain = 0
KSM2 261635Z 17011KT 23/19 A3001 RMK A01 T02270192  RH  080%=      5-min Rain = 0
KSM2 261636Z 16009KT 23/19 A3001 RMK A01 T02280194  RH  081%=      5-min Rain = 0
KSM2 261637Z 16010G15KT 23/20 A3001 RMK A01 T02290195  RH  081%=      5-min Rain = 0
KSM2 261638Z 16014KT 23/19 A3001 RMK A01 T02290193  RH  080%=      5-min Rain = 0
KSM2 261639Z 16011KT 23/19 A3001 RMK A01 T02280192  RH  080%=      5-min Rain = 0
KSM2 261640Z 16011KT 23/19 A3001 RMK A01 T02280192  RH  080%=      5-min Rain = 0
KSM2 261641Z 16012KT 23/19 A3001 RMK A01 T02280192  RH  080%=      5-min Rain = 0
KSM2 261642Z 16010KT 23/19 A3001 RMK A01 T02280190  RH  079%=      5-min Rain = 0
KSM2 261643Z 16009KT 23/19 A3001 RMK A01 T02280191  RH  080%=      5-min Rain = 0
KSM2 261644Z 16011G16KT 23/19 A3001 RMK A01 T02280191  RH  080%=      5-min Rain = 0
KSM2 261645Z 16009KT 23/19 A3001 RMK A01 T02280191  RH  080%=      5-min Rain = 0
KSM2 261646Z 16010KT 23/19 A3001 RMK A01 T02280192  RH  080%=      5-min Rain = 0
KSM2 261647Z 16009KT 23/19 A3001 RMK A01 T02280192  RH  080%=      5-min Rain = 0
KSM2 261648Z 16013KT 23/19 A3001 RMK A01 T02280191  RH  080%=      5-min Rain = 0
KSM2 261649Z 16014KT 23/19 A3001 RMK A01 T02280190  RH  079%=      5-min Rain = 0
KSM2 261650Z 16012KT 23/19 A3001 RMK A01 T02280191  RH  080%=      5-min Rain = 0
KSM2 261651Z 16010KT 23/19 A3001 RMK A01 T02290193  RH  081%=      5-min Rain = 0
KSM2 261652Z 16011KT 23/19 A3001 RMK A01 T02290192  RH  080%=      5-min Rain = 0
KSM2 261653Z 16010KT 23/19 A3001 RMK A01 T02290192  RH  080%=      5-min Rain = 0
KSM2 261654Z 15009KT 23/19 A3001 RMK A01 T02300194  RH  080%=      5-min Rain = 0
KSM2 261655Z 16010KT 23/19 A3001 RMK A01 T02290194  RH  080%=      5-min Rain = 0
KSM2 261656Z 16010KT 23/19 A3001 RMK A01 T02290193  RH  080%=      5-min Rain = 0
KSM2 261657Z 15010G15KT 23/19 A3001 RMK A01 T02280193  RH  081%=      5-min Rain = 0
KSM2 261658Z 16013KT 23/19 A3001 RMK A01 T02280193  RH  080%=      5-min Rain = 0
KSM2 261659Z 16010KT 23/19 A3001 RMK A01 T02280193  RH  080%=      5-min Rain = 0
KSM2 261700Z 15011KT 23/19 A3001 RMK A01 T02290193  RH  080%=      5-min Rain = 0
KSM2 261701Z 15013KT 23/19 A3001 RMK A01 T02290191  RH  079%=      5-min Rain = 0
KSM2 261702Z 15011KT 23/19 A3001 RMK A01 T02290192  RH  079%=      5-min Rain = 0
KSM2 261703Z 15012G17KT 23/19 A3001 RMK A01 T02290192  RH  079%=      5-min Rain = 0
KSM2 261704Z 16011KT 23/19 A3001 RMK A01 T02290192  RH  079%=      5-min Rain = 0
KSM2 261705Z 15014KT 23/19 A3001 RMK A01 T02290191  RH  079%=      5-min Rain = 0
KSM2 261706Z 16014KT 23/19 A3001 RMK A01 T02280190  RH  079%=      5-min Rain = 0
KSM2 261707Z 15012G17KT 23/19 A3001 RMK A01 T02270190  RH  080%=      5-min Rain = 0
KSM2 261708Z 16015KT 23/19 A3001 RMK A01 T02270190  RH  079%=      5-min Rain = 0
KSM2 261709Z 15009KT 23/19 A3001 RMK A01 T02270190  RH  080%=      5-min Rain = 0
KSM2 261710Z 15011G17KT 23/19 A3001 RMK A01 T02270190  RH  080%=      5-min Rain = 0
KSM2 261711Z 16011KT 23/19 A3001 RMK A01 T02270190  RH  080%=      5-min Rain = 0
KSM2 261712Z 15011KT 23/19 A3001 RMK A01 T02270192  RH  080%=      5-min Rain = 0
KSM2 261713Z 16014KT 23/19 A3001 RMK A01 T02270190  RH  079%=      5-min Rain = 0
KSM2 261714Z 16010KT 23/19 A3001 RMK A01 T02270191  RH  080%=      5-min Rain = 0
KSM2 261715Z 15010KT 23/19 A3001 RMK A01 T02270192  RH  080%=      5-min Rain = 0
KSM2 261716Z 16010KT 23/19 A3001 RMK A01 T02270192  RH  080%=      5-min Rain = 0
KSM2 261717Z 16009KT 23/19 A3001 RMK A01 T02270192  RH  080%=      5-min Rain = 0
KSM2 261718Z 15009KT 23/19 A3001 RMK A01 T02270192  RH  081%=      5-min Rain = 0
KSM2 261719Z 15011KT 23/19 A3001 RMK A01 T02270192  RH  080%=      5-min Rain = 0
KSM2 261720Z 15012KT 23/19 A3001 RMK A01 T02270190  RH  080%=      5-min Rain = 0
KSM2 261721Z 16013KT 23/19 A3001 RMK A01 T02270191  RH  080%=      5-min Rain = 0
KSM2 261722Z 15009KT 23/19 A30 RMK A01 T02270191  RH  080%=      5-min Rain = 0
KSM2 261723Z 16012KT 23/19 A30 RMK A01 T02270191  RH  080%=      5-min Rain = 0
KSM2 261724Z 16010KT 23/19 A30 RMK A01 T02270192  RH  081%=      5-min Rain = 0
KSM2 261725Z 16013KT 23/19 A30 RMK A01 T02270191  RH  081%=      5-min Rain = 0
KSM2 261726Z 15014KT 23/19 A3001 RMK A01 T02270190  RH  080%=      5-min Rain = 0
KSM2 261727Z 16014KT 23/19 A30 RMK A01 T02270189  RH  079%=      5-min Rain = 0
KSM2 261728Z 16012KT 23/19 A30 RMK A01 T02270190  RH  079%=      5-min Rain = 0
KSM2 261729Z 15010G16KT 23/19 A30 RMK A01 T02270191  RH  080%=      5-min Rain = 0
KSM2 261730Z 15012KT 23/19 A30 RMK A01 T02270189  RH  079%=      5-min Rain = 0
KSM2 261731Z 16012KT 23/19 A30 RMK A01 T02270189  RH  079%=      5-min Rain = 0
KSM2 261732Z 15010G15KT 23/19 A3001 RMK A01 T02270189  RH  079%=      5-min Rain = 0
KSM2 261733Z 16010KT 23/19 A30 RMK A01 T02270190  RH  080%=      5-min Rain = 0
KSM2 261734Z 15011KT 23/19 A30 RMK A01 T02270192  RH  080%=      5-min Rain = 0
KSM2 261735Z 15011KT 23/19 A30 RMK A01 T02280192  RH  080%=      5-min Rain = 0
KSM2 261736Z 15010KT 23/19 A30 RMK A01 T02280191  RH  080%=      5-min Rain = 0
KSM2 261737Z 16009KT 23/19 A30 RMK A01 T02280192  RH  080%=      5-min Rain = 0
KSM2 261738Z 16010KT 23/19 A30 RMK A01 T02280191  RH  080%=      5-min Rain = 0
KSM2 261739Z 15011KT 23/19 A30 RMK A01 T02290192  RH  080%=      5-min Rain = 0
KSM2 261740Z 15012KT 23/19 A30 RMK A01 T02290191  RH  079%=      5-min Rain = 0
KSM2 261741Z 15012KT 23/19 A30 RMK A01 T02290190  RH  078%=      5-min Rain = 0
KSM2 261742Z 15012KT 23/19 A30 RMK A01 T02290190  RH  079%=      5-min Rain = 0
KSM2 261743Z 15011KT 23/19 A30 RMK A01 T02290191  RH  079%=      5-min Rain = 0
KSM2 261744Z 15010KT 23/19 A30 RMK A01 T02290191  RH  079%=      5-min Rain = 0
KSM2 261745Z 15011KT 23/19 A30 RMK A01 T02300192  RH  079%=      5-min Rain = 0
KSM2 261746Z 15011KT 23/19 A30 RMK A01 T02300192  RH  079%=      5-min Rain = 0
KSM2 261747Z 15012KT 23/19 A30 RMK A01 T02310190  RH  078%=      5-min Rain = 0
KSM2 261748Z 16009KT 23/19 A30 RMK A01 T02300191  RH  079%=      5-min Rain = 0
KSM2 261749Z 16011KT 23/19 A30 RMK A01 T02300191  RH  079%=      5-min Rain = 0
KSM2 261750Z 16011KT 23/19 A30 RMK A01 T02300191  RH  079%=      5-min Rain = 0
KSM2 261751Z 15009KT 23/19 A30 RMK A01 T02300191  RH  079%=      5-min Rain = 0
KSM2 261752Z 16009KT 23/19 A30 RMK A01 T02310194  RH  080%=      5-min Rain = 0
KSM2 261753Z 16012KT 23/19 A30 RMK A01 T02310192  RH  078%=      5-min Rain = 0
KSM2 261754Z 15011KT 23/19 A30 RMK A01 T02320192  RH  078%=      5-min Rain = 0
KSM2 261755Z 15012KT 23/19 A30 RMK A01 T02320191  RH  078%=      5-min Rain = 0
KSM2 261756Z 14012G17KT 23/19 A30 RMK A01 T02320189  RH  077%=      5-min Rain = 0
KSM2 261757Z 15011KT 23/19 A30 RMK A01 T02320190  RH  077%=      5-min Rain = 0
KSM2 261758Z 15011KT 23/19 A30 RMK A01 T02330192  RH  078%=      5-min Rain = 0
KSM2 261759Z 16012KT 23/19 A30 RMK A01 T02340192  RH  077%=      5-min Rain = 0
KSM2 261800Z 14010G15KT 24/19 A30 RMK A01 T02350192  RH  077%=      5-min Rain = 0
KSM2 261801Z 16010G15KT 24/19 A30 RMK A01 T02360193  RH  077%=      5-min Rain = 0
KSM2 261802Z 16014KT 24/19 A30 RMK A01 T02360191  RH  076%=      5-min Rain = 0
KSM2 261803Z 16013KT 24/19 A30 RMK A01 T02360191  RH  076%=      5-min Rain = 0
KSM2 261804Z 15014KT 24/19 A30 RMK A01 T02350190  RH  076%=      5-min Rain = 0
KSM2 261805Z 16015KT 24/19 A30 RMK A01 T02350190  RH  076%=      5-min Rain = 0
KSM2 261806Z 16012KT 24/19 A30 RMK A01 T02350189  RH  076%=      5-min Rain = 0
KSM2 261807Z 15015KT 24/19 A30 RMK A01 T02350190  RH  076%=      5-min Rain = 0
KSM2 261808Z 16013KT 24/19 A30 RMK A01 T02350189  RH  075%=      5-min Rain = 0
KSM2 261809Z 16011KT 24/19 A30 RMK A01 T02360190  RH  076%=      5-min Rain = 0
KSM2 261810Z 16014KT 24/19 A30 RMK A01 T02360190  RH  076%=      5-min Rain = 0
KSM2 261811Z 16016KT 24/19 A30 RMK A01 T02350190  RH  076%=      5-min Rain = 0
KSM2 261812Z 15016KT 24/19 A30 RMK A01 T02350189  RH  076%=      5-min Rain = 0
KSM2 261813Z 16014G20KT 23/19 A30 RMK A01 T02330188  RH  076%=      5-min Rain = 0
KSM2 261814Z 16017KT 23/19 A3001 RMK A01 T02330189  RH  076%=      5-min Rain = 0
KSM2 261815Z 16012G17KT 23/19 A3001 RMK A01 T02320190  RH  077%=      5-min Rain = 0
KSM2 261816Z 15013KT 23/19 A3001 RMK A01 T02320190  RH  077%=      5-min Rain = 0
KSM2 261817Z 15016KT 23/19 A3001 RMK A01 T02320189  RH  077%=      5-min Rain = 0
KSM2 261818Z 15013G18KT 23/19 A3001 RMK A01 T02310188  RH  077%=      5-min Rain = 0
KSM2 261819Z 16011KT 23/19 A3001 RMK A01 T02320190  RH  077%=      5-min Rain = 0
KSM2 261820Z 16014KT 23/19 A3001 RMK A01 T02310189  RH  077%=      5-min Rain = 0
KSM2 261821Z 16014G19KT 23/19 A3001 RMK A01 T02310188  RH  077%=      5-min Rain = 0
KSM2 261822Z 16013KT 23/19 A3001 RMK A01 T02310188  RH  077%=      5-min Rain = 0
KSM2 261823Z 16013KT 23/19 A3001 RMK A01 T02300189  RH  077%=      5-min Rain = 0
KSM2 261824Z 16013G19KT 23/19 A3001 RMK A01 T02300189  RH  077%=      5-min Rain = 0
KSM2 261825Z 16015KT 23/19 A3001 RMK A01 T02300188  RH  077%=      5-min Rain = 0
KSM2 261826Z 16015KT 23/19 A3001 RMK A01 T02300188  RH  077%=      5-min Rain = 0
KSM2 261827Z 17012G18KT 23/19 A3001 RMK A01 T02310188  RH  077%=      5-min Rain = 0
KSM2 261828Z 17011KT 23/19 A3001 RMK A01 T02300188  RH  077%=      5-min Rain = 0
KSM2 261829Z 17010KT 23/19 A3001 RMK A01 T02310189  RH  077%=      5-min Rain = 0
KSM2 261830Z 17011KT 23/19 A3002 RMK A01 T02300189  RH  077%=      5-min Rain = 0
KSM2 261831Z 16013G18KT 23/19 A3002 RMK A01 T02300189  RH  077%=      5-min Rain = 0
KSM2 261832Z 17013KT 23/19 A3002 RMK A01 T02300187  RH  077%=      5-min Rain = 0
KSM2 261833Z 16012KT 23/19 A3002 RMK A01 T02300187  RH  077%=      5-min Rain = 0
KSM2 261834Z 16011G16KT 23/19 A3002 RMK A01 T02300188  RH  077%=      5-min Rain = 0
KSM2 261835Z 17014KT 23/19 A3002 RMK A01 T02300187  RH  077%=      5-min Rain = 0
KSM2 261836Z 16013KT 23/19 A3002 RMK A01 T02290188  RH  078%=      5-min Rain = 0
KSM2 261837Z 17014KT 23/19 A3002 RMK A01 T02290188  RH  077%=      5-min Rain = 0
KSM2 261838Z 17011KT 23/19 A3002 RMK A01 T02290188  RH  077%=      5-min Rain = 0
KSM2 261839Z 17013KT 23/19 A3002 RMK A01 T02300188  RH  077%=      5-min Rain = 0
KSM2 261840Z 17010KT 23/19 A3002 RMK A01 T02290189  RH  078%=      5-min Rain = 0
KSM2 261841Z 16012KT 23/19 A3002 RMK A01 T02300189  RH  078%=      5-min Rain = 0
KSM2 261842Z 17011KT 23/19 A3002 RMK A01 T02310189  RH  078%=      5-min Rain = 0
KSM2 261843Z 17014KT 23/19 A3002 RMK A01 T02300189  RH  078%=      5-min Rain = 0
KSM2 261844Z 17011KT 23/19 A3002 RMK A01 T02300190  RH  078%=      5-min Rain = 0
KSM2 261845Z 16010KT 23/19 A3002 RMK A01 T02300190  RH  078%=      5-min Rain = 0
KSM2 261846Z 17010G15KT 23/19 A3002 RMK A01 T02300191  RH  079%=      5-min Rain = 0
KSM2 261847Z 17011KT 23/19 A3002 RMK A01 T02310189  RH  077%=      5-min Rain = 0
KSM2 261848Z 18012KT 23/19 A3002 RMK A01 T02310189  RH  077%=      5-min Rain = 0
KSM2 261849Z 17009KT 23/19 A3002 RMK A01 T02310190  RH  077%=      5-min Rain = 0
KSM2 261850Z 17009G14KT 23/19 A3001 RMK A01 T02320189  RH  077%=      5-min Rain = 0
KSM2 261851Z 17008KT 23/19 A3001 RMK A01 T02320190  RH  078%=      5-min Rain = 0
KSM2 261852Z 16009KT 23/19 A3001 RMK A01 T02320191  RH  078%=      5-min Rain = 0
KSM2 261853Z 16011KT 23/19 A3001 RMK A01 T02320189  RH  077%=      5-min Rain = 0
KSM2 261854Z 17010KT 23/19 A3001 RMK A01 T02330188  RH  076%=      5-min Rain = 0
KSM2 261855Z 17010KT 23/19 A3001 RMK A01 T02330189  RH  076%=      5-min Rain = 0
KSM2 261856Z 17010KT 23/19 A3001 RMK A01 T02330189  RH  076%=      5-min Rain = 0
KSM2 261857Z 16013KT 23/19 A3001 RMK A01 T02330189  RH  076%=      5-min Rain = 0
KSM2 261858Z 17014KT 23/19 A3001 RMK A01 T02330188  RH  076%=      5-min Rain = 0
KSM2 261859Z 16012KT 23/19 A3001 RMK A01 T02330187  RH  076%=      5-min Rain = 0
KSM2 261900Z 16014KT 23/19 A3001 RMK A01 T02330187  RH  076%=      5-min Rain = 0
KSM2 261901Z 16012KT 23/19 A3001 RMK A01 T02330188  RH  076%=      5-min Rain = 0
KSM2 261902Z 17011KT 23/19 A3001 RMK A01 T02330188  RH  076%=      5-min Rain = 0
KSM2 261903Z 16010KT 23/19 A3001 RMK A01 T02330189  RH  076%=      5-min Rain = 0
KSM2 261904Z 16012KT 23/19 A3001 RMK A01 T02330189  RH  077%=      5-min Rain = 0
KSM2 261905Z 16012KT 23/19 A3001 RMK A01 T02330189  RH  076%=      5-min Rain = 0
KSM2 261906Z 17014KT 23/19 A3001 RMK A01 T02340189  RH  076%=      5-min Rain = 0
KSM2 261907Z 17012KT 23/19 A3002 RMK A01 T02340188  RH  076%=      5-min Rain = 0
KSM2 261908Z 17009KT 23/19 A3002 RMK A01 T02340189  RH  076%=      5-min Rain = 0
KSM2 261909Z 17011KT 23/19 A3002 RMK A01 T02340190  RH  076%=      5-min Rain = 0
KSM2 261910Z 17013KT 23/19 A3002 RMK A01 T02340189  RH  076%=      5-min Rain = 0
KSM2 261911Z 18011KT 23/19 A3002 RMK A01 T02340190  RH  076%=      5-min Rain = 0
KSM2 261912Z 17011KT 23/19 A3002 RMK A01 T02340191  RH  077%=      5-min Rain = 0
KSM2 261913Z 16010KT 23/19 A3002 RMK A01 T02340191  RH  077%=      5-min Rain = 0
KSM2 261914Z 17009KT 24/19 A3002 RMK A01 T02350190  RH  076%=      5-min Rain = 0
KSM2 261915Z 17010G16KT 24/19 A3001 RMK A01 T02350191  RH  076%=      5-min Rain = 0
KSM2 261916Z 17009KT 24/19 A3001 RMK A01 T02350190  RH  076%=      5-min Rain = 0
KSM2 261917Z 17012KT 24/19 A3001 RMK A01 T02350189  RH  075%=      5-min Rain = 0
KSM2 261918Z 17009KT 24/19 A3001 RMK A01 T02350189  RH  075%=      5-min Rain = 0
KSM2 261919Z 17010KT 24/19 A3001 RMK A01 T02350191  RH  076%=      5-min Rain = 0
KSM2 261920Z 16011KT 24/19 A3001 RMK A01 T02350190  RH  076%=      5-min Rain = 0
KSM2 261921Z 16013KT 24/19 A3001 RMK A01 T02350189  RH  075%=      5-min Rain = 0
KSM2 261922Z 17010KT 24/19 A3001 RMK A01 T02350189  RH  075%=      5-min Rain = 0
KSM2 261923Z 17014KT 24/19 A3001 RMK A01 T02350189  RH  075%=      5-min Rain = 0
KSM2 261924Z 17010KT 24/19 A3001 RMK A01 T02350188  RH  075%=      5-min Rain = 0
KSM2 261925Z 17009KT 23/19 A3001 RMK A01 T02340189  RH  075%=      5-min Rain = 0
KSM2 261926Z 16011KT 24/19 A3001 RMK A01 T02350189  RH  076%=      5-min Rain = 0
KSM2 261927Z 17009KT 23/19 A3001 RMK A01 T02340190  RH  076%=      5-min Rain = 0
KSM2 261928Z 17011KT 23/19 A3001 RMK A01 T02340189  RH  076%=      5-min Rain = 0
KSM2 261929Z 17011KT 23/19 A3001 RMK A01 T02340189  RH  076%=      5-min Rain = 0
KSM2 261930Z 16007KT 23/19 A3001 RMK A01 T02340191  RH  077%=      5-min Rain = 0
KSM2 261931Z 16009KT 23/19 A3001 RMK A01 T02340191  RH  077%=      5-min Rain = 0
KSM2 261932Z 16010KT 23/19 A3001 RMK A01 T02340190  RH  076%=      5-min Rain = 0
KSM2 261933Z 16011KT 23/19 A3001 RMK A01 T02340190  RH  076%=      5-min Rain = 0
KSM2 261934Z 16010KT 23/19 A3001 RMK A01 T02330189  RH  076%=      5-min Rain = 0
KSM2 261935Z 16009KT 23/19 A3001 RMK A01 T02340190  RH  076%=      5-min Rain = 0
KSM2 261936Z 15007KT 23/19 A30 RMK A01 T02340192  RH  077%=      5-min Rain = 0
KSM2 261937Z 15011KT 23/19 A30 RMK A01 T02330192  RH  078%=      5-min Rain = 0
KSM2 261938Z 15010KT 23/19 A30 RMK A01 T02330191  RH  078%=      5-min Rain = 0
KSM2 261939Z 16011KT 23/19 A30 RMK A01 T02320191  RH  077%=      5-min Rain = 0
KSM2 261940Z 16011KT 23/19 A30 RMK A01 T02320191  RH  078%=      5-min Rain = 0
KSM2 261941Z 15012KT 23/19 A30 RMK A01 T02310190  RH  078%=      5-min Rain = 0
KSM2 261942Z 15012KT 23/19 A30 RMK A01 T02320191  RH  078%=      5-min Rain = 0
KSM2 261943Z 16012KT 23/19 A30 RMK A01 T02310191  RH  078%=      5-min Rain = 0
KSM2 261944Z 15012KT 23/19 A30 RMK A01 T02310191  RH  078%=      5-min Rain = 0
KSM2 261945Z 16013G18KT 23/19 A30 RMK A01 T02310191  RH  078%=      5-min Rain = 0
KSM2 261946Z 15011KT 23/19 A30 RMK A01 T02310191  RH  078%=      5-min Rain = 0
KSM2 261947Z 15014KT 23/19 A30 RMK A01 T02310191  RH  078%=      5-min Rain = 0
KSM2 261948Z 16013KT 23/19 A30 RMK A01 T02310191  RH  078%=      5-min Rain = 0
KSM2 261949Z 15012KT 23/19 A30 RMK A01 T02310191  RH  078%=      5-min Rain = 0
KSM2 261950Z 15011KT 23/19 A30 RMK A01 T02300191  RH  078%=      5-min Rain = 0
KSM2 261951Z 15009KT 23/19 A30 RMK A01 T02300192  RH  079%=      5-min Rain = 0
KSM2 261952Z 15011KT 23/19 A30 RMK A01 T02300193  RH  079%=      5-min Rain = 0
KSM2 261953Z 15010KT 23/19 A30 RMK A01 T02300193  RH  079%=      5-min Rain = 0
KSM2 261954Z 14011KT 23/19 A2999 RMK A01 T02300193  RH  080%=      5-min Rain = 0
KSM2 261955Z 14011KT 23/19 A2999 RMK A01 T02290193  RH  080%=      5-min Rain = 0
KSM2 261956Z 15012KT 23/19 A2999 RMK A01 T02290192  RH  080%=      5-min Rain = 0
KSM2 261957Z 15011KT 23/19 A2999 RMK A01 T02290192  RH  080%=      5-min Rain = 0
KSM2 261958Z 14010KT 23/19 A2999 RMK A01 T02290192  RH  080%=      5-min Rain = 0
KSM2 261959Z 14012KT 23/19 A2999 RMK A01 T02280192  RH  080%=      5-min Rain = 0
KSM2 262000Z 15011KT 23/19 A2999 RMK A01 T02290192  RH  080%=      5-min Rain = 0
KSM2 262001Z 15009KT 23/19 A2999 RMK A01 T02290192  RH  080%=      5-min Rain = 0
KSM2 262002Z 14010KT 23/19 A2999 RMK A01 T02290192  RH  080%=      5-min Rain = 0
KSM2 262003Z 14012KT 23/19 A2999 RMK A01 T02290192  RH  080%=      5-min Rain = 0
KSM2 262004Z 15013KT 23/19 A2999 RMK A01 T02290192  RH  080%=      5-min Rain = 0
KSM2 262005Z 14011KT 23/19 A2999 RMK A01 T02290192  RH  079%=      5-min Rain = 0
KSM2 262006Z 15010KT 23/19 A2999 RMK A01 T02290193  RH  080%=      5-min Rain = 0
KSM2 262007Z 15009KT 23/19 A2999 RMK A01 T02300193  RH  080%=      5-min Rain = 0
KSM2 262008Z 14013G18KT 23/19 A2999 RMK A01 T02310193  RH  079%=      5-min Rain = 0
KSM2 262009Z 14015KT 23/19 A2999 RMK A01 T02310192  RH  079%=      5-min Rain = 0
KSM2 262010Z 14014KT 23/19 A2999 RMK A01 T02310191  RH  078%=      5-min Rain = 0
KSM2 262011Z 14012KT 23/19 A2998 RMK A01 T02310192  RH  079%=      5-min Rain = 0
KSM2 262012Z 14013KT 23/19 A2998 RMK A01 T02310192  RH  079%=      5-min Rain = 0
KSM2 262013Z 14012KT 23/19 A2998 RMK A01 T02310191  RH  078%=      5-min Rain = 0
KSM2 262014Z 14013KT 23/19 A2998 RMK A01 T02310191  RH  078%=      5-min Rain = 0
KSM2 262015Z 14012KT 23/19 A2998 RMK A01 T02320191  RH  078%=      5-min Rain = 0
KSM2 262016Z 14011KT 23/19 A2997 RMK A01 T02320190  RH  077%=      5-min Rain = 0
KSM2 262017Z 14010KT 23/19 A2997 RMK A01 T02320191  RH  078%=      5-min Rain = 0
KSM2 262018Z 13009KT 23/19 A2997 RMK A01 T02320192  RH  078%=      5-min Rain = 0
KSM2 262019Z 13009KT 23/19 A2997 RMK A01 T02320194  RH  079%=      5-min Rain = 0
KSM2 262020Z 13010KT 23/19 A2996 RMK A01 T02330194  RH  079%=      5-min Rain = 0
KSM2 262021Z 13008KT 23/19 A2996 RMK A01 T02330194  RH  079%=      5-min Rain = 0
KSM2 262022Z 13010KT 23/19 A2996 RMK A01 T02330193  RH  078%=      5-min Rain = 0
KSM2 262023Z 13008KT 23/19 A2996 RMK A01 T02330194  RH  079%=      5-min Rain = 0
KSM2 262024Z 14009G15KT 23/19 A2997 RMK A01 T02330194  RH  079%=      5-min Rain = 0
KSM2 262025Z 14012KT 23/19 A2998 RMK A01 T02340194  RH  078%=      5-min Rain = 0
KSM2 262026Z 14012KT 23/19 A2998 RMK A01 T02340194  RH  078%=      5-min Rain = 0
KSM2 262027Z 14013KT 23/19 A2998 RMK A01 T02340193  RH  078%=      5-min Rain = 0
KSM2 262028Z 13010KT 23/19 A2997 RMK A01 T02340193  RH  078%=      5-min Rain = 0
KSM2 262029Z 14010KT 23/19 A2996 RMK A01 T02330194  RH  078%=      5-min Rain = 0
KSM2 262030Z 14008KT 23/19 A2996 RMK A01 T02330194  RH  078%=      5-min Rain = 0
KSM2 262031Z 13011KT 23/20 A2997 RMK A01 T02330195  RH  079%=      5-min Rain = 0
KSM2 262032Z 13013KT 23/19 A2997 RMK A01 T02340194  RH  079%=      5-min Rain = 0
KSM2 262033Z 14012G19KT 23/19 A2997 RMK A01 T02340194  RH  078%=      5-min Rain = 0
KSM2 262034Z 13014G20KT 23/19 A2997 RMK A01 T02330194  RH  078%=      5-min Rain = 0
KSM2 262035Z 13015G20KT 23/19 A2997 RMK A01 T02330193  RH  079%=      5-min Rain = 0
KSM2 262036Z 14013G19KT 23/19 A2997 RMK A01 T02320193  RH  079%=      5-min Rain = 0
KSM2 262037Z 14013KT 23/19 A2997 RMK A01 T02320193  RH  079%=      5-min Rain = 0
KSM2 262038Z 15014KT 23/19 A2997 RMK A01 T02310194  RH  079%=      5-min Rain = 0
KSM2 262039Z 14010KT 23/19 A2997 RMK A01 T02310194  RH  079%=      5-min Rain = 0
KSM2 262040Z 14010KT 23/19 A2997 RMK A01 T02310194  RH  080%=      5-min Rain = 0
KSM2 262041Z 15013KT 23/20 A2998 RMK A01 T02310195  RH  080%=      5-min Rain = 0
KSM2 262042Z 15011KT 23/20 A2998 RMK A01 T02310195  RH  080%=      5-min Rain = 0
KSM2 262043Z 15011KT 23/19 A2998 RMK A01 T02310194  RH  080%=      5-min Rain = 0
KSM2 262044Z 15010G15KT 23/20 A2998 RMK A01 T02310195  RH  080%=      5-min Rain = 0
KSM2 262045Z 15012KT 23/20 A2998 RMK A01 T02310195  RH  080%=      5-min Rain = 0
KSM2 262046Z 15013KT 23/20 A2998 RMK A01 T02310195  RH  080%=      5-min Rain = 0
KSM2 262047Z 15012KT 23/19 A2998 RMK A01 T02310194  RH  080%=      5-min Rain = 0
KSM2 262048Z 15013KT 23/19 A2997 RMK A01 T02310194  RH  080%=      5-min Rain = 0
KSM2 262049Z 14010KT 23/19 A2997 RMK A01 T02310194  RH  080%=      5-min Rain = 0
KSM2 262050Z 14011KT 23/20 A2996 RMK A01 T02310195  RH  080%=      5-min Rain = 0
KSM2 262051Z 14011KT 23/19 A2996 RMK A01 T02310194  RH  080%=      5-min Rain = 0
KSM2 262052Z 14012KT 23/19 A2996 RMK A01 T02300194  RH  080%=      5-min Rain = 0
KSM2 262053Z 14013KT 23/19 A2997 RMK A01 T02310193  RH  079%=      5-min Rain = 0
KSM2 262054Z 14014KT 23/19 A2997 RMK A01 T02310192  RH  079%=      5-min Rain = 0
KSM2 262055Z 14014KT 23/19 A2996 RMK A01 T02310193  RH  079%=      5-min Rain = 0
KSM2 262056Z 14011KT 23/19 A2996 RMK A01 T02310194  RH  079%=      5-min Rain = 0
KSM2 262057Z 14010KT 23/19 A2996 RMK A01 T02310194  RH  080%=      5-min Rain = 0
KSM2 262058Z 14010KT 23/19 A2996 RMK A01 T02310194  RH  080%=      5-min Rain = 0
KSM2 262059Z 14011KT 23/19 A2995 RMK A01 T02310193  RH  079%=      5-min Rain = 0
KSM2 262100Z 13012G18KT 23/19 A2995 RMK A01 T02310194  RH  080%=      5-min Rain = 0
KSM2 262101Z 13011G16KT 23/19 A2995 RMK A01 T02310193  RH  079%=      5-min Rain = 0
KSM2 262102Z 14011KT 23/19 A2995 RMK A01 T02310194  RH  079%=      5-min Rain = 0
KSM2 262103Z 14013KT 23/19 A2995 RMK A01 T02310193  RH  079%=      5-min Rain = 0
KSM2 262104Z 15010KT 23/19 A2995 RMK A01 T02310194  RH  079%=      5-min Rain = 0
KSM2 262105Z 15011KT 23/19 A2996 RMK A01 T02310193  RH  079%=      5-min Rain = 0
KSM2 262106Z 15012KT 23/19 A2996 RMK A01 T02310193  RH  079%=      5-min Rain = 0
KSM2 262107Z 15011KT 23/19 A2995 RMK A01 T02310192  RH  078%=      5-min Rain = 0
KSM2 262108Z 15012KT 23/19 A2995 RMK A01 T02320193  RH  079%=      5-min Rain = 0
KSM2 262109Z 14009KT 23/19 A2995 RMK A01 T02310193  RH  079%=      5-min Rain = 0
KSM2 262110Z 15009KT 23/19 A2995 RMK A01 T02320194  RH  079%=      5-min Rain = 0
KSM2 262111Z 15010KT 23/19 A2995 RMK A01 T02320194  RH  079%=      5-min Rain = 0
KSM2 262112Z 15008KT 23/19 A2995 RMK A01 T02320193  RH  079%=      5-min Rain = 0
KSM2 262113Z 14009G14KT 23/19 A2995 RMK A01 T02330194  RH  079%=      5-min Rain = 0
KSM2 262114Z 15012KT 23/19 A2995 RMK A01 T02330194  RH  079%=      5-min Rain = 0
KSM2 262115Z 14013KT 23/19 A2995 RMK A01 T02330193  RH  078%=      5-min Rain = 0
KSM2 262116Z 14017KT 23/19 A2995 RMK A01 T02330192  RH  078%=      5-min Rain = 0
KSM2 262117Z 14013KT 23/19 A2995 RMK A01 T02330192  RH  078%=      5-min Rain = 0
KSM2 262118Z 14014KT 23/19 A2995 RMK A01 T02330193  RH  078%=      5-min Rain = 0
KSM2 262119Z 14011G16KT 23/19 A2994 RMK A01 T02330193  RH  078%=      5-min Rain = 0
KSM2 262120Z 14012G17KT 23/19 A2994 RMK A01 T02330194  RH  079%=      5-min Rain = 0
KSM2 262121Z 14014KT 23/19 A2995 RMK A01 T02330193  RH  078%=      5-min Rain = 0
KSM2 262122Z 14015KT 23/19 A2995 RMK A01 T02330193  RH  078%=      5-min Rain = 0
KSM2 262123Z 14014KT 23/19 A2995 RMK A01 T02330193  RH  078%=      5-min Rain = 0
KSM2 262124Z 14013KT 23/19 A2994 RMK A01 T02340193  RH  078%=      5-min Rain = 0
KSM2 262125Z 14017KT 23/19 A2994 RMK A01 T02340193  RH  078%=      5-min Rain = 0
KSM2 262126Z 13011KT 23/19 A2994 RMK A01 T02340193  RH  078%=      5-min Rain = 0
KSM2 262127Z 14013KT 23/19 A2994 RMK A01 T02340194  RH  078%=      5-min Rain = 0
KSM2 262128Z 14014KT 24/19 A2994 RMK A01 T02350193  RH  077%=      5-min Rain = 0
KSM2 262129Z 14013G18KT 24/19 A2994 RMK A01 T02350193  RH  077%=      5-min Rain = 0
KSM2 262130Z 13014KT 23/19 A2993 RMK A01 T02340192  RH  077%=      5-min Rain = 0
KSM2 262131Z 13014KT 23/19 A2993 RMK A01 T02340193  RH  077%=      5-min Rain = 0
KSM2 262132Z 14014KT 24/19 A2993 RMK A01 T02350193  RH  077%=      5-min Rain = 0
KSM2 262133Z 13013G18KT 23/19 A2993 RMK A01 T02340193  RH  077%=      5-min Rain = 0
KSM2 262134Z 14016KT 23/19 A2993 RMK A01 T02340193  RH  077%=      5-min Rain = 0
KSM2 262135Z 14014KT 23/19 A2993 RMK A01 T02340193  RH  078%=      5-min Rain = 0
KSM2 262136Z 14016G21KT 23/19 A2993 RMK A01 T02340193  RH  078%=      5-min Rain = 0
KSM2 262137Z 15016KT 23/19 A2993 RMK A01 T02340193  RH  078%=      5-min Rain = 0
KSM2 262138Z 14013G19KT 23/19 A2993 RMK A01 T02340193  RH  078%=      5-min Rain = 0
KSM2 262139Z 14013KT 23/19 A2993 RMK A01 T02340193  RH  078%=      5-min Rain = 0
KSM2 262140Z 14013G18KT 23/19 A2993 RMK A01 T02340193  RH  078%=      5-min Rain = 0
KSM2 262141Z 15013KT 23/19 A2993 RMK A01 T02340193  RH  078%=      5-min Rain = 0
KSM2 262142Z 15012G17KT 23/19 A2993 RMK A01 T02340193  RH  078%=      5-min Rain = 0
KSM2 262143Z 14016KT 23/19 A2994 RMK A01 T02340193  RH  077%=      5-min Rain = 0
KSM2 262144Z 15013KT 23/19 A2994 RMK A01 T02340192  RH  077%=      5-min Rain = 0
KSM2 262145Z 15014KT 24/19 A2994 RMK A01 T02350193  RH  077%=      5-min Rain = 0
KSM2 262146Z 15014G20KT 24/19 A2994 RMK A01 T02350193  RH  077%=      5-min Rain = 0
KSM2 262147Z 15016KT 23/19 A2994 RMK A01 T02340192  RH  077%=      5-min Rain = 0
KSM2 262148Z 15014KT 24/19 A2994 RMK A01 T02350192  RH  077%=      5-min Rain = 0
KSM2 262149Z 15015G20KT 24/19 A2994 RMK A01 T02350193  RH  077%=      5-min Rain = 0
KSM2 262150Z 16015G21KT 24/19 A2994 RMK A01 T02350193  RH  077%=      5-min Rain = 0
KSM2 262151Z 14016KT 24/19 A2994 RMK A01 T02350193  RH  077%=      5-min Rain = 0
KSM2 262152Z 15016G22KT 24/19 A2994 RMK A01 T02360193  RH  077%=      5-min Rain = 0
KSM2 262153Z 15014KT 24/19 A2994 RMK A01 T02360193  RH  077%=      5-min Rain = 0
KSM2 262154Z 15014KT 24/19 A2994 RMK A01 T02360193  RH  077%=      5-min Rain = 0
KSM2 262155Z 15013G19KT 24/19 A2994 RMK A01 T02360193  RH  077%=      5-min Rain = 0
KSM2 262156Z 15014G19KT 24/19 A2994 RMK A01 T02360193  RH  077%=      5-min Rain = 0
KSM2 262157Z 15015KT 24/19 A2994 RMK A01 T02360193  RH  076%=      5-min Rain = 0
KSM2 262158Z 15016KT 24/19 A2993 RMK A01 T02360192  RH  076%=      5-min Rain = 0
KSM2 262159Z 15013KT 24/19 A2993 RMK A01 T02360193  RH  077%=      5-min Rain = 0
KSM2 262200Z 15016KT 24/19 A2992 RMK A01 T02360193  RH  077%=      5-min Rain = 0
KSM2 262201Z 15013KT 24/19 A2992 RMK A01 T02360192  RH  076%=      5-min Rain = 0
KSM2 262202Z 14015KT 24/19 A2992 RMK A01 T02360192  RH  077%=      5-min Rain = 0
KSM2 262203Z 15015G20KT 24/19 A2993 RMK A01 T02350192  RH  077%=      5-min Rain = 0
KSM2 262204Z 15016KT 24/19 A2993 RMK A01 T02350192  RH  077%=      5-min Rain = 0
KSM2 262205Z 14015G20KT 24/19 A2993 RMK A01 T02360192  RH  077%=      5-min Rain = 0
KSM2 262206Z 14015KT 24/19 A2992 RMK A01 T02360192  RH  077%=      5-min Rain = 0
KSM2 262207Z 14017KT 24/19 A2991 RMK A01 T02360192  RH  076%=      5-min Rain = 0
KSM2 262208Z 14016G21KT 24/19 A2991 RMK A01 T02350191  RH  076%=      5-min Rain = 0
KSM2 262209Z 14014G19KT 24/19 A2991 RMK A01 T02350192  RH  077%=      5-min Rain = 0
KSM2 262210Z 14015G20KT 24/19 A299 RMK A01 T02350193  RH  077%=      5-min Rain = 0
KSM2 262211Z 13013G19KT 24/19 A299 RMK A01 T02350193  RH  077%=      5-min Rain = 0
KSM2 262212Z 13015KT 24/19 A299 RMK A01 T02350193  RH  077%=      5-min Rain = 0
KSM2 262213Z 13015G21KT 24/19 A2989 RMK A01 T02350192  RH  077%=      5-min Rain = 0
KSM2 262214Z 13016G21KT 24/19 A2989 RMK A01 T02350192  RH  077%=      5-min Rain = 0
KSM2 262215Z 13017KT 24/19 A2989 RMK A01 T02360192  RH  076%=      5-min Rain = 0
KSM2 262216Z 13014G22KT 24/19 A2988 RMK A01 T02360192  RH  077%=      5-min Rain = 0
KSM2 262217Z 13015G24KT 24/19 A2988 RMK A01 T02370193  RH  077%=      5-min Rain = 0
KSM2 262218Z 12015KT 24/19 A2988 RMK A01 T02370193  RH  076%=      5-min Rain = 0
KSM2 262219Z 12013KT 24/19 A2988 RMK A01 T02370194  RH  077%=      5-min Rain = 0
KSM2 262220Z 12015KT 24/20 A2988 RMK A01 T02380195  RH  077%=      5-min Rain = 0
KSM2 262221Z 13017G23KT 24/20 A2988 RMK A01 T02390195  RH  076%=      5-min Rain = 0
KSM2 262222Z 13013G18KT 24/19 A2988 RMK A01 T02390194  RH  076%=      5-min Rain = 0
KSM2 262223Z 14015G21KT 24/19 A2989 RMK A01 T02390194  RH  076%=      5-min Rain = 0
KSM2 262224Z 14017G22KT 24/19 A299 RMK A01 T02390193  RH  076%=      5-min Rain = 0
KSM2 262225Z 15015KT 24/19 A299 RMK A01 T02390193  RH  075%=      5-min Rain = 0
KSM2 262226Z 14016G22KT 24/19 A299 RMK A01 T02390193  RH  075%=      5-min Rain = 0
KSM2 262227Z 15017G22KT 24/19 A299 RMK A01 T02390192  RH  075%=      5-min Rain = 0
KSM2 262228Z 14013KT 24/19 A299 RMK A01 T02390192  RH  075%=      5-min Rain = 0
KSM2 262229Z 14014KT 24/19 A299 RMK A01 T02400193  RH  075%=      5-min Rain = 0
KSM2 262230Z 14019KT 24/19 A299 RMK A01 T02410192  RH  074%=      5-min Rain = 0
KSM2 262231Z 13014KT 24/19 A299 RMK A01 T02410193  RH  075%=      5-min Rain = 0
KSM2 262232Z 14014KT 24/19 A299 RMK A01 T02410194  RH  075%=      5-min Rain = 0
KSM2 262233Z 13013KT 24/19 A299 RMK A01 T02410194  RH  075%=      5-min Rain = 0
KSM2 262234Z 14015KT 24/19 A299 RMK A01 T02410194  RH  075%=      5-min Rain = 0
KSM2 262235Z 14017KT 24/20 A299 RMK A01 T02420195  RH  075%=      5-min Rain = 0
KSM2 262236Z 14016G21KT 24/20 A299 RMK A01 T02420195  RH  075%=      5-min Rain = 0
KSM2 262237Z 14020KT 24/19 A299 RMK A01 T02420194  RH  075%=      5-min Rain = 0
KSM2 262238Z 14016G23KT 24/19 A299 RMK A01 T02420194  RH  074%=      5-min Rain = 0
KSM2 262239Z 14014KT 24/20 A299 RMK A01 T02440196  RH  074%=      5-min Rain = 0
KSM2 262240Z 14017G24KT 25/20 A299 RMK A01 T02460195  RH  073%=      5-min Rain = 0
KSM2 262241Z 14014G19KT 25/20 A2989 RMK A01 T02460195  RH  073%=      5-min Rain = 0
KSM2 262242Z 14014G19KT 25/20 A2989 RMK A01 T02480196  RH  073%=      5-min Rain = 0
KSM2 262243Z 15016G23KT 25/20 A2989 RMK A01 T02500196  RH  072%=      5-min Rain = 0
KSM2 262244Z 14013G18KT 25/20 A2989 RMK A01 T02500196  RH  072%=      5-min Rain = 0
KSM2 262245Z 14015KT 25/20 A2989 RMK A01 T02490196  RH  072%=      5-min Rain = 0
KSM2 262246Z 14014KT 25/20 A2989 RMK A01 T02480195  RH  072%=      5-min Rain = 0
KSM2 262247Z 15013KT 25/20 A2989 RMK A01 T02470195  RH  073%=      5-min Rain = 0
KSM2 262248Z 16014G20KT 25/20 A299 RMK A01 T02480195  RH  072%=      5-min Rain = 0
KSM2 262249Z 17015G20KT 25/19 A2991 RMK A01 T02480194  RH  072%=      5-min Rain = 0
KSM2 262250Z 16016G21KT 25/20 A2991 RMK A01 T02490195  RH  072%=      5-min Rain = 0
KSM2 262251Z 16014KT 25/20 A2991 RMK A01 T02490195  RH  072%=      5-min Rain = 0
KSM2 262252Z 16010G16KT 25/20 A2991 RMK A01 T02500197  RH  072%=      5-min Rain = 0
KSM2 262253Z 15012KT 25/20 A2991 RMK A01 T02520198  RH  072%=      5-min Rain = 0
KSM2 262254Z 15012KT 25/20 A2991 RMK A01 T02520197  RH  071%=      5-min Rain = 0
KSM2 262255Z 15014KT 25/20 A2991 RMK A01 T02520196  RH  071%=      5-min Rain = 0
KSM2 262256Z 14017KT 25/20 A2991 RMK A01 T02520195  RH  071%=      5-min Rain = 0
KSM2 262257Z 16016G23KT 25/20 A2991 RMK A01 T02510195  RH  071%=      5-min Rain = 0
KSM2 262258Z 15017G22KT 25/19 A2991 RMK A01 T02500194  RH  071%=      5-min Rain = 0
KSM2 262259Z 14017G22KT 25/19 A2992 RMK A01 T02500192  RH  071%=      5-min Rain = 0
KSM2 262300Z 15015G20KT 25/19 A2992 RMK A01 T02490192  RH  071%=      5-min Rain = 0
KSM2 262301Z 15016KT 25/19 A2992 RMK A01 T02490194  RH  071%=      5-min Rain = 0
KSM2 262302Z 15014G21KT 25/20 A2992 RMK A01 T02500195  RH  071%=      5-min Rain = 0
KSM2 262303Z 16016KT 25/20 A2992 RMK A01 T02510196  RH  072%=      5-min Rain = 0
KSM2 262304Z 16012G17KT 25/20 A2992 RMK A01 T02510196  RH  071%=      5-min Rain = 0
KSM2 262305Z 15011KT 25/20 A2992 RMK A01 T02500198  RH  072%=      5-min Rain = 0
KSM2 262306Z 16015G21KT 25/20 A2992 RMK A01 T02510196  RH  071%=      5-min Rain = 0
KSM2 262307Z 16017KT 25/19 A2992 RMK A01 T02520194  RH  070%=      5-min Rain = 0
KSM2 262308Z 16016KT 25/19 A2992 RMK A01 T02510193  RH  070%=      5-min Rain = 0
KSM2 262309Z 16014KT 25/19 A2992 RMK A01 T02500194  RH  071%=      5-min Rain = 0
KSM2 262310Z 15014G19KT 25/19 A2992 RMK A01 T02500194  RH  071%=      5-min Rain = 0
KSM2 262311Z 15014G20KT 25/20 A2992 RMK A01 T02500196  RH  072%=      5-min Rain = 0
KSM2 262312Z 17018KT 25/20 A2992 RMK A01 T02520195  RH  071%=      5-min Rain = 0
KSM2 262313Z 16015KT 25/19 A2992 RMK A01 T02500193  RH  071%=      5-min Rain = 0
KSM2 262314Z 15014KT 25/20 A2992 RMK A01 T02490196  RH  072%=      5-min Rain = 0
KSM2 262315Z 15017G22KT 25/19 A2992 RMK A01 T02500194  RH  071%=      5-min Rain = 0
KSM2 262316Z 16018KT 25/19 A2992 RMK A01 T02490193  RH  071%=      5-min Rain = 0
KSM2 262317Z 16016G22KT 25/19 A2991 RMK A01 T02480193  RH  071%=      5-min Rain = 0
KSM2 262318Z 16019G24KT 25/19 A2992 RMK A01 T02480191  RH  071%=      5-min Rain = 0
KSM2 262319Z 16018KT 25/19 A2992 RMK A01 T02480192  RH  071%=      5-min Rain = 0
KSM2 262320Z 15013KT 25/19 A2991 RMK A01 T02480194  RH  072%=      5-min Rain = 0
KSM2 262321Z 14016G22KT 25/19 A2991 RMK A01 T02480193  RH  071%=      5-min Rain = 0
KSM2 262322Z 15017G24KT 25/19 A2991 RMK A01 T02490193  RH  071%=      5-min Rain = 0
KSM2 262323Z 16018G23KT 25/19 A2991 RMK A01 T02480192  RH  071%=      5-min Rain = 0
KSM2 262324Z 16017G22KT 25/19 A2991 RMK A01 T02480190  RH  070%=      5-min Rain = 0
KSM2 262325Z 17015G21KT 25/19 A2991 RMK A01 T02480191  RH  070%=      5-min Rain = 0
KSM2 262326Z 16018KT 25/19 A2991 RMK A01 T02480191  RH  070%=      5-min Rain = 0
KSM2 262327Z 15015G23KT 25/19 A2991 RMK A01 T02490191  RH  070%=      5-min Rain = 0
KSM2 262328Z 15013G18KT 25/19 A2991 RMK A01 T02510192  RH  070%=      5-min Rain = 0
KSM2 262329Z 15014KT 25/19 A2991 RMK A01 T02520192  RH  069%=      5-min Rain = 0
KSM2 262330Z 16017KT 25/19 A2991 RMK A01 T02530191  RH  068%=      5-min Rain = 0
KSM2 262331Z 15016G21KT 25/19 A2991 RMK A01 T02520191  RH  069%=      5-min Rain = 0
KSM2 262332Z 15014KT 25/19 A299 RMK A01 T02520191  RH  069%=      5-min Rain = 0
KSM2 262333Z 14011G16KT 25/19 A299 RMK A01 T02520193  RH  070%=      5-min Rain = 0
KSM2 262334Z 16014G21KT 25/19 A299 RMK A01 T02530192  RH  069%=      5-min Rain = 0
KSM2 262335Z 16017G22KT 25/19 A299 RMK A01 T02530190  RH  068%=      5-min Rain = 0
KSM2 262336Z 16019G26KT 25/19 A299 RMK A01 T02520188  RH  068%=      5-min Rain = 0
KSM2 262337Z 16018G23KT 25/19 A299 RMK A01 T02510187  RH  068%=      5-min Rain = 0
KSM2 262338Z 16018G24KT 25/19 A2991 RMK A01 T02510188  RH  068%=      5-min Rain = 0
KSM2 262339Z 16017G22KT 25/19 A2991 RMK A01 T02510189  RH  069%=      5-min Rain = 0
KSM2 262340Z 15017KT 25/19 A299 RMK A01 T02510188  RH  068%=      5-min Rain = 0
KSM2 262341Z 16019G24KT 25/19 A299 RMK A01 T02510188  RH  068%=      5-min Rain = 0
KSM2 262342Z 15018G23KT 25/19 A299 RMK A01 T02510187  RH  068%=      5-min Rain = 0
KSM2 262343Z 16016G21KT 25/19 A299 RMK A01 T02510188  RH  068%=      5-min Rain = 0
KSM2 262344Z 15013G18KT 25/19 A299 RMK A01 T02500189  RH  069%=      5-min Rain = 0
KSM2 262345Z 15016G23KT 25/19 A299 RMK A01 T02510190  RH  069%=      5-min Rain = 0
KSM2 262346Z 16018G23KT 25/19 A299 RMK A01 T02510188  RH  068%=      5-min Rain = 0
KSM2 262347Z 16016G21KT 25/19 A299 RMK A01 T02510188  RH  068%=      5-min Rain = 0
KSM2 262348Z 16015G23KT 25/19 A299 RMK A01 T02510188  RH  068%=      5-min Rain = 0
KSM2 262349Z 16014KT 25/19 A299 RMK A01 T02520189  RH  068%=      5-min Rain = 0
KSM2 262350Z 15014G19KT 25/19 A299 RMK A01 T02530191  RH  069%=      5-min Rain = 0
KSM2 262351Z 16015G20KT 25/19 A299 RMK A01 T02530190  RH  068%=      5-min Rain = 0
KSM2 262352Z 16015KT 25/19 A2989 RMK A01 T02530191  RH  068%=      5-min Rain = 0
KSM2 262353Z 16018KT 25/19 A2989 RMK A01 T02530190  RH  068%=      5-min Rain = 0
KSM2 262354Z 15015G20KT 25/19 A2989 RMK A01 T02540188  RH  067%=      5-min Rain = 0
KSM2 262355Z 14014G19KT 25/19 A2989 RMK A01 T02530189  RH  068%=      5-min Rain = 0
KSM2 262356Z 15019G25KT 25/19 A2989 RMK A01 T02530188  RH  067%=      5-min Rain = 0
KSM2 262357Z 15017KT 25/19 A2989 RMK A01 T02530186  RH  067%=      5-min Rain = 0
KSM2 262358Z 15017G22KT 25/19 A2989 RMK A01 T02530186  RH  067%=      5-min Rain = 0
KSM2 262359Z 16016G22KT 25/19 A2989 RMK A01 T02520186  RH  067%=      5-min Rain = 0
KSM2 270000Z 15016G21KT 25/19 A2989 RMK A01 T02510188  RH  068%=      5-min Rain = 0
KSM2 270001Z 15014KT 25/19 A2989 RMK A01 T02510189  RH  068%=      5-min Rain = 0
KSM2 270002Z 16014G20KT 25/19 A2989 RMK A01 T02500189  RH  069%=      5-min Rain = 0
KSM2 270003Z 15012KT 25/19 A2989 RMK A01 T02500190  RH  069%=      5-min Rain = 0
KSM2 270004Z 15012KT 25/19 A2989 RMK A01 T02500192  RH  070%=      5-min Rain = 0
KSM2 270005Z 16015G20KT 25/19 A2989 RMK A01 T02490192  RH  071%=      5-min Rain = 0
KSM2 270006Z 15016KT 25/19 A2989 RMK A01 T02470191  RH  071%=      5-min Rain = 0
KSM2 270007Z 15012KT 25/19 A2989 RMK A01 T02460192  RH  072%=      5-min Rain = 0
KSM2 270008Z 15013KT 25/19 A2989 RMK A01 T02460192  RH  072%=      5-min Rain = 0
KSM2 270009Z 15013KT 25/19 A2989 RMK A01 T02460192  RH  072%=      5-min Rain = 0
KSM2 270010Z 15014KT 25/19 A2989 RMK A01 T02450191  RH  072%=      5-min Rain = 0
KSM2 270011Z 15016G21KT 25/19 A2989 RMK A01 T02460191  RH  072%=      5-min Rain = 0
KSM2 270012Z 15014KT 25/19 A2989 RMK A01 T02450191  RH  072%=      5-min Rain = 0
KSM2 270013Z 15013G18KT 24/19 A2989 RMK A01 T02440190  RH  072%=      5-min Rain = 0
KSM2 270014Z 15016KT 24/19 A2989 RMK A01 T02430190  RH  072%=      5-min Rain = 0
KSM2 270015Z 15013G21KT 24/19 A2989 RMK A01 T02430190  RH  072%=      5-min Rain = 0
KSM2 270016Z 15016KT 24/19 A2989 RMK A01 T02440190  RH  072%=      5-min Rain = 0
KSM2 270017Z 15016KT 24/19 A2988 RMK A01 T02440190  RH  071%=      5-min Rain = 0
KSM2 270018Z 15015G20KT 25/19 A2988 RMK A01 T02450190  RH  071%=      5-min Rain = 0
KSM2 270019Z 15015KT 25/19 A2988 RMK A01 T02460190  RH  071%=      5-min Rain = 0
KSM2 270020Z 15017KT 25/19 A2988 RMK A01 T02470190  RH  071%=      5-min Rain = 0
KSM2 270021Z 14015G20KT 25/19 A2988 RMK A01 T02470190  RH  071%=      5-min Rain = 0
KSM2 270022Z 15018G24KT 25/19 A2988 RMK A01 T02470190  RH  070%=      5-min Rain = 0
KSM2 270023Z 14015KT 25/19 A2988 RMK A01 T02480190  RH  070%=      5-min Rain = 0
KSM2 270024Z 15015G20KT 25/19 A2988 RMK A01 T02460190  RH  071%=      5-min Rain = 0
KSM2 270025Z 15017G23KT 25/19 A2988 RMK A01 T02460190  RH  071%=      5-min Rain = 0
KSM2 270026Z 15015KT 25/19 A2987 RMK A01 T02460190  RH  071%=      5-min Rain = 0
KSM2 270027Z 15016G21KT 25/19 A2987 RMK A01 T02450190  RH  071%=      5-min Rain = 0
KSM2 270028Z 14017G22KT 25/19 A2987 RMK A01 T02450189  RH  071%=      5-min Rain = 0
KSM2 270029Z 15015G20KT 24/19 A2987 RMK A01 T02440189  RH  072%=      5-min Rain = 0
KSM2 270030Z 15017G23KT 24/19 A2987 RMK A01 T02440189  RH  071%=      5-min Rain = 0
KSM2 270031Z 15015G20KT 24/19 A2987 RMK A01 T02440189  RH  071%=      5-min Rain = 0
KSM2 270032Z 15015G21KT 24/19 A2987 RMK A01 T02440189  RH  071%=      5-min Rain = 0
KSM2 270033Z 15015G21KT 25/19 A2987 RMK A01 T02450189  RH  071%=      5-min Rain = 0
KSM2 270034Z 15015G20KT 25/19 A2987 RMK A01 T02450190  RH  071%=      5-min Rain = 0
KSM2 270035Z 14016KT 25/19 A2987 RMK A01 T02450190  RH  072%=      5-min Rain = 0
KSM2 270036Z 15016G23KT 24/19 A2986 RMK A01 T02440190  RH  072%=      5-min Rain = 0
KSM2 270037Z 15017G23KT 24/19 A2986 RMK A01 T02430189  RH  072%=      5-min Rain = 0
KSM2 270038Z 16017KT 24/19 A2986 RMK A01 T02430188  RH  072%=      5-min Rain = 0
KSM2 270039Z 15014KT 24/19 A2986 RMK A01 T02420188  RH  072%=      5-min Rain = 0
KSM2 270040Z 15013KT 24/19 A2986 RMK A01 T02420189  RH  072%=      5-min Rain = 0
KSM2 270041Z 15013G20KT 24/19 A2986 RMK A01 T02410188  RH  072%=      5-min Rain = 0
KSM2 270042Z 16016G22KT 24/19 A2986 RMK A01 T02410187  RH  072%=      5-min Rain = 0
KSM2 270043Z 15018G24KT 24/19 A2986 RMK A01 T02410187  RH  072%=      5-min Rain = 0
KSM2 270044Z 15014G22KT 24/19 A2986 RMK A01 T02400187  RH  072%=      5-min Rain = 0
KSM2 270045Z 15015KT 24/19 A2986 RMK A01 T02390188  RH  073%=      5-min Rain = 0
KSM2 270046Z 15014G21KT 24/19 A2986 RMK A01 T02390188  RH  073%=      5-min Rain = 0
KSM2 270047Z 15015G20KT 24/19 A2986 RMK A01 T02380187  RH  073%=      5-min Rain = 0
KSM2 270048Z 14013KT 24/19 A2986 RMK A01 T02380187  RH  073%=      5-min Rain = 0
KSM2 270049Z 15016KT 24/19 A2986 RMK A01 T02380187  RH  073%=      5-min Rain = 0
KSM2 270050Z 15013KT 24/19 A2986 RMK A01 T02380187  RH  073%=      5-min Rain = 0
KSM2 270051Z 15016KT 24/19 A2986 RMK A01 T02380187  RH  073%=      5-min Rain = 0
KSM2 270052Z 15014KT 24/19 A2986 RMK A01 T02380187  RH  073%=      5-min Rain = 0
KSM2 270053Z 15014G20KT 24/19 A2986 RMK A01 T02370187  RH  073%=      5-min Rain = 0
KSM2 270054Z 15016KT 24/19 A2986 RMK A01 T02370187  RH  074%=      5-min Rain = 0
KSM2 270055Z 15016G22KT 24/19 A2986 RMK A01 T02370187  RH  074%=      5-min Rain = 0
KSM2 270056Z 15014G19KT 24/19 A2986 RMK A01 T02370188  RH  074%=      5-min Rain = 0
KSM2 270057Z 15013G18KT 24/19 A2986 RMK A01 T02360188  RH  074%=      5-min Rain = 0
KSM2 270058Z 15014KT 24/19 A2986 RMK A01 T02360189  RH  075%=      5-min Rain = 0
KSM2 270059Z 15014KT 24/19 A2986 RMK A01 T02350189  RH  075%=      5-min Rain = 0
KSM2 270100Z 15013KT 24/19 A2986 RMK A01 T02350189  RH  075%=      5-min Rain = 0
KSM2 270101Z 15013G19KT 24/19 A2986 RMK A01 T02350189  RH  075%=      5-min Rain = 0
KSM2 270102Z 15014G20KT 24/19 A2986 RMK A01 T02350189  RH  075%=      5-min Rain = 0
KSM2 270103Z 15016G23KT 24/19 A2986 RMK A01 T02350188  RH  075%=      5-min Rain = 0
KSM2 270104Z 15014G20KT 24/19 A2986 RMK A01 T02350188  RH  075%=      5-min Rain = 0
KSM2 270105Z 15017KT 24/19 A2986 RMK A01 T02350188  RH  075%=      5-min Rain = 0
KSM2 270106Z 14015G22KT 24/19 A2986 RMK A01 T02350188  RH  075%=      5-min Rain = 0
KSM2 270107Z 15016KT 24/19 A2986 RMK A01 T02350188  RH  075%=      5-min Rain = 0
KSM2 270108Z 15017G22KT 24/19 A2986 RMK A01 T02350188  RH  075%=      5-min Rain = 0
KSM2 270109Z 15016G21KT 24/19 A2986 RMK A01 T02350187  RH  075%=      5-min Rain = 0
KSM2 270110Z 15017G22KT 24/19 A2986 RMK A01 T02350187  RH  075%=      5-min Rain = 0
KSM2 270111Z 15016KT 24/19 A2986 RMK A01 T02350187  RH  075%=      5-min Rain = 0
KSM2 270112Z 15015G21KT 24/19 A2986 RMK A01 T02350187  RH  075%=      5-min Rain = 0
KSM2 270113Z 15015G20KT 23/19 A2986 RMK A01 T02340187  RH  075%=      5-min Rain = 0
KSM2 270114Z 14013KT 23/19 A2986 RMK A01 T02340187  RH  075%=      5-min Rain = 0
KSM2 270115Z 15015G23KT 23/19 A2986 RMK A01 T02330187  RH  075%=      5-min Rain = 0
KSM2 270116Z 15014G20KT 23/19 A2986 RMK A01 T02330187  RH  075%=      5-min Rain = 0
KSM2 270117Z 14013G19KT 23/19 A2986 RMK A01 T02330187  RH  076%=      5-min Rain = 0
KSM2 270118Z 15012KT 23/19 A2986 RMK A01 T02330188  RH  076%=      5-min Rain = 0
KSM2 270119Z 15014G21KT 23/19 A2986 RMK A01 T02320188  RH  076%=      5-min Rain = 0
KSM2 270120Z 15013KT 23/19 A2986 RMK A01 T02320187  RH  076%=      5-min Rain = 0
KSM2 270121Z 15014G21KT 23/19 A2986 RMK A01 T02320188  RH  076%=      5-min Rain = 0
KSM2 270122Z 15015KT 23/19 A2986 RMK A01 T02310187  RH  076%=      5-min Rain = 0
KSM2 270123Z 15015G21KT 23/19 A2986 RMK A01 T02310187  RH  076%=      5-min Rain = 0
KSM2 270124Z 15014KT 23/19 A2986 RMK A01 T02310187  RH  076%=      5-min Rain = 0
KSM2 270125Z 16014KT 23/19 A2986 RMK A01 T02320186  RH  076%=      5-min Rain = 0
KSM2 270126Z 16016KT 23/19 A2986 RMK A01 T02320186  RH  075%=      5-min Rain = 0
KSM2 270127Z 15017G22KT 23/19 A2986 RMK A01 T02320186  RH  075%=      5-min Rain = 0
KSM2 270128Z 16017G22KT 23/19 A2986 RMK A01 T02320185  RH  075%=      5-min Rain = 0
KSM2 270129Z 16018G23KT 23/19 A2986 RMK A01 T02320185  RH  075%=      5-min Rain = 0
KSM2 270130Z 16019G25KT 23/19 A2986 RMK A01 T02330185  RH  075%=      5-min Rain = 0
KSM2 270131Z 15019G25KT 23/19 A2986 RMK A01 T02330185  RH  075%=      5-min Rain = 0
KSM2 270132Z 15017G22KT 23/19 A2986 RMK A01 T02330185  RH  074%=      5-min Rain = 0
KSM2 270133Z 15013KT 23/19 A2986 RMK A01 T02330185  RH  075%=      5-min Rain = 0
KSM2 270134Z 15011KT 23/19 A2986 RMK A01 T02320185  RH  075%=      5-min Rain = 0
KSM2 270135Z 15012G18KT 23/19 A2986 RMK A01 T02310186  RH  075%=      5-min Rain = 0
KSM2 270136Z 15015KT 23/19 A2986 RMK A01 T02300185  RH  076%=      5-min Rain = 0
KSM2 270137Z 15017KT 23/19 A2986 RMK A01 T02300185  RH  076%=      5-min Rain = 0
KSM2 270138Z 15014KT 23/19 A2986 RMK A01 T02300185  RH  076%=      5-min Rain = 0
KSM2 270139Z 15014KT 23/19 A2986 RMK A01 T02300185  RH  076%=      5-min Rain = 0
KSM2 270140Z 16016KT 23/19 A2986 RMK A01 T02300185  RH  076%=      5-min Rain = 0
KSM2 270141Z 15014G19KT 23/19 A2986 RMK A01 T02300185  RH  076%=      5-min Rain = 0
KSM2 270142Z 15016KT 23/19 A2986 RMK A01 T02300185  RH  076%=      5-min Rain = 0
KSM2 270143Z 15014KT 23/19 A2986 RMK A01 T02300185  RH  076%=      5-min Rain = 0
KSM2 270144Z 16014G19KT 23/19 A2986 RMK A01 T02300185  RH  076%=      5-min Rain = 0
KSM2 270145Z 15014KT 23/19 A2986 RMK A01 T02290185  RH  076%=      5-min Rain = 0
KSM2 270146Z 15013KT 23/19 A2986 RMK A01 T02290185  RH  076%=      5-min Rain = 0
KSM2 270147Z 15012KT 23/19 A2986 RMK A01 T02290185  RH  076%=      5-min Rain = 0
KSM2 270148Z 15014KT 23/19 A2986 RMK A01 T02280185  RH  076%=      5-min Rain = 0
KSM2 270149Z 15013G21KT 23/19 A2986 RMK A01 T02280185  RH  076%=      5-min Rain = 0
KSM2 270150Z 15014G19KT 23/19 A2986 RMK A01 T02280185  RH  076%=      5-min Rain = 0
KSM2 270151Z 16016KT 23/18 A2987 RMK A01 T02280184  RH  076%=      5-min Rain = 0
KSM2 270152Z 16016KT 23/18 A2987 RMK A01 T02290184  RH  076%=      5-min Rain = 0
KSM2 270153Z 16016KT 23/18 A2987 RMK A01 T02290184  RH  076%=      5-min Rain = 0
KSM2 270154Z 16017KT 23/18 A2987 RMK A01 T02290184  RH  076%=      5-min Rain = 0
KSM2 270155Z 16017G23KT 23/18 A2987 RMK A01 T02290184  RH  076%=      5-min Rain = 0
KSM2 270156Z 15018KT 23/18 A2987 RMK A01 T02290184  RH  075%=      5-min Rain = 0
KSM2 270157Z 15018KT 23/18 A2987 RMK A01 T02290184  RH  075%=      5-min Rain = 0
KSM2 270158Z 15014G19KT 23/18 A2987 RMK A01 T02290184  RH  075%=      5-min Rain = 0
KSM2 270159Z 16014KT 23/18 A2987 RMK A01 T02290184  RH  076%=      5-min Rain = 0
KSM2 270200Z 16015KT 23/18 A2987 RMK A01 T02280184  RH  076%=      5-min Rain = 0
KSM2 270201Z 16015KT 23/18 A2987 RMK A01 T02280184  RH  076%=      5-min Rain = 0
KSM2 270202Z 15013G18KT 23/18 A2987 RMK A01 T02280184  RH  076%=      5-min Rain = 0
KSM2 270203Z 16017KT 23/18 A2987 RMK A01 T02280184  RH  076%=      5-min Rain = 0
KSM2 270204Z 15014KT 23/18 A2987 RMK A01 T02280184  RH  076%=      5-min Rain = 0
KSM2 270205Z 16016G21KT 23/18 A2987 RMK A01 T02280184  RH  076%=      5-min Rain = 0
KSM2 270206Z 16013KT 23/18 A2987 RMK A01 T02280183  RH  076%=      5-min Rain = 0
KSM2 270207Z 16013G20KT 23/18 A2987 RMK A01 T02270184  RH  076%=      5-min Rain = 0
KSM2 270208Z 16012KT 23/18 A2987 RMK A01 T02270184  RH  076%=      5-min Rain = 0
KSM2 270209Z 15015G20KT 23/18 A2988 RMK A01 T02270184  RH  077%=      5-min Rain = 0
KSM2 270210Z 15014KT 23/18 A2988 RMK A01 T02270183  RH  077%=      5-min Rain = 0
KSM2 270211Z 16013KT 23/18 A2988 RMK A01 T02270183  RH  076%=      5-min Rain = 0
KSM2 270212Z 15011KT 23/18 A2988 RMK A01 T02270184  RH  077%=      5-min Rain = 0
KSM2 270213Z 14010KT 23/18 A2988 RMK A01 T02260184  RH  077%=      5-min Rain = 0
KSM2 270214Z 15010KT 23/18 A2988 RMK A01 T02260183  RH  077%=      5-min Rain = 0
KSM2 270215Z 15014KT 23/18 A2988 RMK A01 T02260184  RH  077%=      5-min Rain = 0
KSM2 270216Z 15014G19KT 23/18 A2988 RMK A01 T02260184  RH  077%=      5-min Rain = 0
KSM2 270217Z 15010KT 23/18 A2988 RMK A01 T02250183  RH  077%=      5-min Rain = 0
KSM2 270218Z 15011KT 23/18 A2988 RMK A01 T02250184  RH  077%=      5-min Rain = 0
KSM2 270219Z 14011G16KT 23/18 A2988 RMK A01 T02250184  RH  077%=      5-min Rain = 0
KSM2 270220Z 15012KT 22/18 A2988 RMK A01 T02240183  RH  078%=      5-min Rain = 0
KSM2 270221Z 16012KT 23/18 A2988 RMK A01 T02250184  RH  078%=      5-min Rain = 0
KSM2 270222Z 15010KT 23/18 A2988 RMK A01 T02250184  RH  078%=      5-min Rain = 0
KSM2 270223Z 15010KT 22/18 A2988 RMK A01 T02240184  RH  078%=      5-min Rain = 0
KSM2 270224Z 15011KT 22/18 A2988 RMK A01 T02240184  RH  078%=      5-min Rain = 0
KSM2 270225Z 15013KT 22/18 A2988 RMK A01 T02240183  RH  078%=      5-min Rain = 0
KSM2 270226Z 15014G19KT 22/18 A2988 RMK A01 T02240183  RH  078%=      5-min Rain = 0
KSM2 270227Z 15013G19KT 22/18 A2988 RMK A01 T02240183  RH  077%=      5-min Rain = 0
KSM2 270228Z 15010KT 22/18 A2989 RMK A01 T02240183  RH  077%=      5-min Rain = 0
KSM2 270229Z 15011KT 23/18 A2989 RMK A01 T02250184  RH  078%=      5-min Rain = 0
KSM2 270230Z 15011KT 22/18 A2989 RMK A01 T02240183  RH  078%=      5-min Rain = 0
KSM2 270231Z 15010KT 22/18 A2989 RMK A01 T02240184  RH  078%=      5-min Rain = 0
KSM2 270232Z 15012KT 22/18 A2989 RMK A01 T02240184  RH  078%=      5-min Rain = 0
KSM2 270233Z 15010KT 22/18 A2989 RMK A01 T02240184  RH  078%=      5-min Rain = 0
KSM2 270234Z 15012KT 22/18 A2989 RMK A01 T02240183  RH  078%=      5-min Rain = 0
KSM2 270235Z 15011KT 22/18 A2989 RMK A01 T02240184  RH  078%=      5-min Rain = 0
KSM2 270236Z 15010KT 22/18 A2989 RMK A01 T02230183  RH  078%=      5-min Rain = 0
KSM2 270237Z 14011KT 22/18 A2989 RMK A01 T02230184  RH  078%=      5-min Rain = 0
KSM2 270238Z 15014KT 22/18 A2989 RMK A01 T02230183  RH  078%=      5-min Rain = 0
KSM2 270239Z 15012KT 22/18 A2989 RMK A01 T02230183  RH  078%=      5-min Rain = 0
KSM2 270240Z 15012G19KT 22/18 A2989 RMK A01 T02230183  RH  078%=      5-min Rain = 0
KSM2 270241Z 15011G17KT 22/18 A2989 RMK A01 T02230183  RH  078%=      5-min Rain = 0
KSM2 270242Z 15012KT 22/18 A2989 RMK A01 T02230183  RH  078%=      5-min Rain = 0
KSM2 270243Z 15011KT 22/18 A2989 RMK A01 T02230183  RH  078%=      5-min Rain = 0
KSM2 270244Z 14012G18KT 22/18 A2988 RMK A01 T02230183  RH  078%=      5-min Rain = 0
KSM2 270245Z 15011KT 22/18 A2989 RMK A01 T02220183  RH  078%=      5-min Rain = 0
KSM2 270246Z 15011KT 22/18 A2989 RMK A01 T02220183  RH  078%=      5-min Rain = 0
KSM2 270247Z 15013KT 22/18 A2989 RMK A01 T02220183  RH  079%=      5-min Rain = 0
KSM2 270248Z 15011KT 22/18 A2989 RMK A01 T02220183  RH  078%=      5-min Rain = 0
KSM2 270249Z 15011KT 22/18 A2989 RMK A01 T02220183  RH  079%=      5-min Rain = 0
KSM2 270250Z 15010KT 22/18 A2989 RMK A01 T02220183  RH  079%=      5-min Rain = 0
KSM2 270251Z 15011KT 22/18 A2989 RMK A01 T02210183  RH  079%=      5-min Rain = 0
KSM2 270252Z 15010G16KT 22/18 A2989 RMK A01 T02210183  RH  079%=      5-min Rain = 0
KSM2 270253Z 15013KT 22/18 A2989 RMK A01 T02210183  RH  079%=      5-min Rain = 0
KSM2 270254Z 15013KT 22/18 A2989 RMK A01 T02210183  RH  079%=      5-min Rain = 0
KSM2 270255Z 15011G16KT 22/18 A2989 RMK A01 T02210182  RH  078%=      5-min Rain = 0
KSM2 270256Z 15011KT 22/18 A2989 RMK A01 T02220183  RH  078%=      5-min Rain = 0
KSM2 270257Z 15011G16KT 22/18 A2989 RMK A01 T02210183  RH  079%=      5-min Rain = 0
KSM2 270258Z 14012KT 22/18 A2988 RMK A01 T02210183  RH  079%=      5-min Rain = 0
KSM2 270259Z 14011KT 22/18 A2988 RMK A01 T02210182  RH  079%=      5-min Rain = 0
KSM2 270300Z 15012KT 22/18 A2988 RMK A01 T02200182  RH  079%=      5-min Rain = 0
KSM2 270301Z 14013G20KT 22/18 A2988 RMK A01 T02200182  RH  079%=      5-min Rain = 0
KSM2 270302Z 15014KT 22/18 A2988 RMK A01 T02200182  RH  079%=      5-min Rain = 0
KSM2 270303Z 15013KT 22/18 A2989 RMK A01 T02210182  RH  079%=      5-min Rain = 0
KSM2 270304Z 14012KT 22/18 A2989 RMK A01 T02200182  RH  079%=      5-min Rain = 0
KSM2 270305Z 14013G18KT 22/18 A2989 RMK A01 T02200182  RH  079%=      5-min Rain = 0
KSM2 270306Z 14013KT 22/18 A2988 RMK A01 T02200182  RH  079%=      5-min Rain = 0
KSM2 270307Z 14013KT 22/18 A2988 RMK A01 T02200182  RH  079%=      5-min Rain = 0
KSM2 270308Z 14012KT 22/18 A2988 RMK A01 T02190182  RH  079%=      5-min Rain = 0
KSM2 270309Z 15013G20KT 22/18 A2988 RMK A01 T02190182  RH  080%=      5-min Rain = 0
KSM2 270310Z 15014G19KT 22/18 A2988 RMK A01 T02190182  RH  080%=      5-min Rain = 0
KSM2 270311Z 15012KT 22/18 A2988 RMK A01 T02190182  RH  079%=      5-min Rain = 0
KSM2 270312Z 15013G19KT 22/18 A2988 RMK A01 T02190182  RH  079%=      5-min Rain = 0
KSM2 270313Z 15014KT 22/18 A2988 RMK A01 T02190182  RH  079%=      5-min Rain = 0
KSM2 270314Z 15014G19KT 22/18 A2988 RMK A01 T02190181  RH  079%=      5-min Rain = 0
KSM2 270315Z 14015KT 22/18 A2988 RMK A01 T02200182  RH  079%=      5-min Rain = 0
KSM2 270316Z 15015KT 22/18 A2988 RMK A01 T02190181  RH  079%=      5-min Rain = 0
KSM2 270317Z 15014G19KT 22/18 A2988 RMK A01 T02200181  RH  079%=      5-min Rain = 0
KSM2 270318Z 14016KT 22/18 A2988 RMK A01 T02200182  RH  079%=      5-min Rain = 0
KSM2 270319Z 15015KT 22/18 A2988 RMK A01 T02200182  RH  079%=      5-min Rain = 0
KSM2 270320Z 15013KT 22/18 A2988 RMK A01 T02200182  RH  079%=      5-min Rain = 0
KSM2 270321Z 15015KT 22/18 A2988 RMK A01 T02190182  RH  079%=      5-min Rain = 0
KSM2 270322Z 15014G19KT 22/18 A2988 RMK A01 T02190181  RH  079%=      5-min Rain = 0
KSM2 270323Z 15013KT 22/18 A2988 RMK A01 T02190181  RH  079%=      5-min Rain = 0
KSM2 270324Z 14016G21KT 22/18 A2988 RMK A01 T02200181  RH  079%=      5-min Rain = 0
KSM2 270325Z 15013KT 22/18 A2988 RMK A01 T02190181  RH  079%=      5-min Rain = 0
KSM2 270326Z 15015KT 22/18 A2988 RMK A01 T02190181  RH  079%=      5-min Rain = 0
KSM2 270327Z 15012KT 22/18 A2988 RMK A01 T02190181  RH  079%=      5-min Rain = 0
KSM2 270328Z 15011KT 22/18 A2988 RMK A01 T02190181  RH  079%=      5-min Rain = 0
KSM2 270329Z 15011KT 22/18 A2988 RMK A01 T02180181  RH  079%=      5-min Rain = 0
KSM2 270330Z 15013KT 22/18 A2988 RMK A01 T02180180  RH  079%=      5-min Rain = 0
KSM2 270331Z 15012G17KT 22/18 A2988 RMK A01 T02180181  RH  079%=      5-min Rain = 0
KSM2 270332Z 15012KT 22/18 A2988 RMK A01 T02180180  RH  079%=      5-min Rain = 0
KSM2 270333Z 15011G16KT 22/18 A2988 RMK A01 T02180181  RH  079%=      5-min Rain = 0
KSM2 270334Z 15011KT 22/18 A2988 RMK A01 T02180180  RH  079%=      5-min Rain = 0
KSM2 270335Z 15010KT 22/18 A2988 RMK A01 T02180180  RH  079%=      5-min Rain = 0
KSM2 270336Z 15012G17KT 22/18 A2989 RMK A01 T02170180  RH  079%=      5-min Rain = 0
KSM2 270337Z 16012KT 22/18 A2989 RMK A01 T02170180  RH  079%=      5-min Rain = 0
KSM2 270338Z 16016G21KT 22/18 A2989 RMK A01 T02180180  RH  079%=      5-min Rain = 0
KSM2 270339Z 16015G20KT 22/18 A2989 RMK A01 T02180180  RH  079%=      5-min Rain = 0
KSM2 270340Z 16015KT 22/18 A2989 RMK A01 T02190180  RH  078%=      5-min Rain = 0
KSM2 270341Z 15013KT 22/18 A2989 RMK A01 T02190179  RH  078%=      5-min Rain = 0
KSM2 270342Z 16011KT 22/18 A2989 RMK A01 T02190179  RH  078%=      5-min Rain = 0
KSM2 270343Z 16011KT 22/18 A2989 RMK A01 T02180180  RH  079%=      5-min Rain = 0
KSM2 270344Z 16013KT 22/18 A2989 RMK A01 T02170180  RH  079%=      5-min Rain = 0
KSM2 270345Z 16013G18KT 22/18 A2989 RMK A01 T02170180  RH  079%=      5-min Rain = 0
KSM2 270346Z 16012KT 22/18 A2989 RMK A01 T02170179  RH  079%=      5-min Rain = 0
KSM2 270347Z 16010KT 22/18 A2989 RMK A01 T02180180  RH  079%=      5-min Rain = 0
KSM2 270348Z 16014KT 22/18 A2989 RMK A01 T02170180  RH  079%=      5-min Rain = 0
KSM2 270349Z 16011KT 22/18 A2989 RMK A01 T02170180  RH  079%=      5-min Rain = 0
KSM2 270350Z 16012KT 22/18 A2989 RMK A01 T02170180  RH  080%=      5-min Rain = 0
KSM2 270351Z 16012KT 22/18 A2989 RMK A01 T02160180  RH  080%=      5-min Rain = 0
KSM2 270352Z 16010KT 22/18 A2989 RMK A01 T02160180  RH  080%=      5-min Rain = 0
KSM2 270353Z 16010KT 22/18 A2989 RMK A01 T02160180  RH  080%=      5-min Rain = 0
KSM2 270354Z 16012KT 22/18 A2989 RMK A01 T02160180  RH  080%=      5-min Rain = 0
KSM2 270355Z 16012G17KT 22/18 A2989 RMK A01 T02160179  RH  080%=      5-min Rain = 0
KSM2 270356Z 16013KT 22/18 A2989 RMK A01 T02160179  RH  080%=      5-min Rain = 0
KSM2 270357Z 16011KT 22/18 A2989 RMK A01 T02160179  RH  080%=      5-min Rain = 0
KSM2 270358Z 16011KT 22/18 A2989 RMK A01 T02160179  RH  079%=      5-min Rain = 0
KSM2 270359Z 16013KT 22/18 A2989 RMK A01 T02160179  RH  079%=      5-min Rain = 0
KSM2 270400Z 16010KT 22/18 A2989 RMK A01 T02160179  RH  079%=      5-min Rain = 0
KSM2 270401Z 16011KT 22/18 A2989 RMK A01 T02160179  RH  080%=      5-min Rain = 0
KSM2 270402Z 16010G15KT 22/18 A2989 RMK A01 T02150179  RH  080%=      5-min Rain = 0
KSM2 270403Z 17011KT 22/18 A2989 RMK A01 T02150180  RH  080%=      5-min Rain = 0
KSM2 270404Z 16011KT 22/18 A2989 RMK A01 T02150179  RH  080%=      5-min Rain = 0
KSM2 270405Z 17011G17KT 22/18 A2989 RMK A01 T02150179  RH  080%=      5-min Rain = 0
KSM2 270406Z 16010KT 22/18 A2989 RMK A01 T02150179  RH  080%=      5-min Rain = 0
KSM2 270407Z 16010KT 22/18 A2989 RMK A01 T02150179  RH  080%=      5-min Rain = 0
KSM2 270408Z 16012KT 21/18 A2989 RMK A01 T02140179  RH  080%=      5-min Rain = 0
KSM2 270409Z 16012KT 21/18 A2989 RMK A01 T02140179  RH  080%=      5-min Rain = 0
KSM2 270410Z 16012KT 21/18 A2989 RMK A01 T02140179  RH  080%=      5-min Rain = 0
KSM2 270411Z 16011KT 21/18 A2989 RMK A01 T02140179  RH  080%=      5-min Rain = 0
KSM2 270412Z 16011KT 21/18 A2989 RMK A01 T02140179  RH  081%=      5-min Rain = 0
KSM2 270413Z 16012KT 21/18 A2989 RMK A01 T02130179  RH  081%=      5-min Rain = 0
KSM2 270414Z 16009KT 21/18 A2989 RMK A01 T02140179  RH  081%=      5-min Rain = 0
KSM2 270415Z 17009KT 21/18 A2989 RMK A01 T02130179  RH  081%=      5-min Rain = 0
KSM2 270416Z 17011KT 21/18 A2989 RMK A01 T02130179  RH  081%=      5-min Rain = 0
KSM2 270417Z 16009KT 21/18 A2989 RMK A01 T02130179  RH  081%=      5-min Rain = 0
KSM2 270418Z 17009KT 21/18 A2989 RMK A01 T02130179  RH  081%=      5-min Rain = 0
KSM2 270419Z 17010KT 21/18 A2989 RMK A01 T02130179  RH  081%=      5-min Rain = 0
KSM2 270420Z 17010KT 21/18 A2989 RMK A01 T02130179  RH  081%=      5-min Rain = 0
KSM2 270421Z 16008KT 21/18 A2989 RMK A01 T02130179  RH  081%=      5-min Rain = 0
KSM2 270422Z 17011KT 21/18 A299 RMK A01 T02120178  RH  081%=      5-min Rain = 0
KSM2 270423Z 17009KT 21/18 A299 RMK A01 T02120178  RH  081%=      5-min Rain = 0
KSM2 270424Z 16009KT 21/18 A299 RMK A01 T02130179  RH  081%=      5-min Rain = 0
KSM2 270425Z 16010KT 21/18 A299 RMK A01 T02130179  RH  081%=      5-min Rain = 0
KSM2 270426Z 16009KT 21/18 A299 RMK A01 T02130179  RH  081%=      5-min Rain = 0
KSM2 270427Z 16010KT 21/18 A299 RMK A01 T02130178  RH  081%=      5-min Rain = 0
KSM2 270428Z 17010KT 21/18 A299 RMK A01 T02130178  RH  081%=      5-min Rain = 0
KSM2 270429Z 17009KT 21/18 A299 RMK A01 T02130178  RH  081%=      5-min Rain = 0
KSM2 270430Z 17011KT 21/18 A299 RMK A01 T02120178  RH  081%=      5-min Rain = 0
KSM2 270431Z 16010KT 21/18 A299 RMK A01 T02120178  RH  081%=      5-min Rain = 0
KSM2 270432Z 17010KT 21/18 A299 RMK A01 T02130178  RH  081%=      5-min Rain = 0
KSM2 270433Z 16009KT 21/18 A299 RMK A01 T02130178  RH  081%=      5-min Rain = 0
KSM2 270434Z 17010KT 21/18 A299 RMK A01 T02120178  RH  081%=      5-min Rain = 0
KSM2 270435Z 16011KT 21/18 A299 RMK A01 T02120178  RH  081%=      5-min Rain = 0
KSM2 270436Z 16010KT 21/18 A2989 RMK A01 T02120178  RH  081%=      5-min Rain = 0
KSM2 270437Z 16009KT 21/18 A2989 RMK A01 T02120178  RH  081%=      5-min Rain = 0
KSM2 270438Z 16011KT 21/18 A2989 RMK A01 T02110178  RH  081%=      5-min Rain = 0
KSM2 270439Z 17008KT 21/18 A2989 RMK A01 T02110178  RH  081%=      5-min Rain = 0
KSM2 270440Z 17009KT 21/18 A2989 RMK A01 T02110178  RH  081%=      5-min Rain = 0
KSM2 270441Z 17009KT 21/18 A2989 RMK A01 T02110178  RH  082%=      5-min Rain = 0
KSM2 270442Z 18010KT 21/18 A2989 RMK A01 T02110178  RH  082%=      5-min Rain = 0
KSM2 270443Z 18008KT 21/18 A2989 RMK A01 T02110178  RH  082%=      5-min Rain = 0
KSM2 270444Z 17010KT 21/18 A2989 RMK A01 T02110178  RH  082%=      5-min Rain = 0
KSM2 270445Z 17008KT 21/18 A2989 RMK A01 T02110178  RH  082%=      5-min Rain = 0
KSM2 270446Z 17008KT 21/18 A2989 RMK A01 T02110178  RH  082%=      5-min Rain = 0
KSM2 270447Z 17008KT 21/18 A2989 RMK A01 T02100178  RH  082%=      5-min Rain = 0
KSM2 270448Z 17009KT 21/18 A2989 RMK A01 T02100178  RH  082%=      5-min Rain = 0
KSM2 270449Z 16009KT 21/18 A2989 RMK A01 T02100178  RH  082%=      5-min Rain = 0
KSM2 270450Z 16009KT 21/18 A2989 RMK A01 T02100178  RH  082%=      5-min Rain = 0
KSM2 270451Z 16009KT 21/18 A2989 RMK A01 T02090178  RH  082%=      5-min Rain = 0
KSM2 270452Z 16009KT 21/18 A2989 RMK A01 T02090178  RH  082%=      5-min Rain = 0
KSM2 270453Z 16008KT 21/18 A2989 RMK A01 T02090177  RH  082%=      5-min Rain = 0
KSM2 270454Z 16008KT 21/18 A2989 RMK A01 T02090177  RH  082%=      5-min Rain = 0
KSM2 270455Z 16010KT 21/18 A2989 RMK A01 T02090177  RH  082%=      5-min Rain = 0
KSM2 270456Z 16008KT 21/18 A2989 RMK A01 T02090177  RH  082%=      5-min Rain = 0
KSM2 270457Z 16007KT 21/18 A299 RMK A01 T02090177  RH  082%=      5-min Rain = 0
KSM2 270458Z 16008KT 21/18 A299 RMK A01 T02090177  RH  082%=      5-min Rain = 0
KSM2 270459Z 16009KT 21/18 A299 RMK A01 T02090178  RH  082%=      5-min Rain = 0

Page generated in 0.0341 seconds.